<?xml version="1.0" encoding="UTF-8" standalone="no" ?>
<gpx xmlns="http://www.topografix.com/GPX/1/1" xmlns:xsi="http://www.w3.org/2001/XMLSchema-instance" xsi:schemaLocation="http://www.topografix.com/GPX/1/1 http://www.topografix.com/GPX/1/1/gpx.xsd" version="1.1" creator="VisuGPX - https://www.visugpx.com">
  <metadata>
    <name>Rouen By Night</name>
    <desc><![CDATA[Petite balade dans Rouen de nuit avec plein d\'escalier]]></desc>
  </metadata>
  <trk>
    <name><![CDATA[Rouen ByNight]]></name>
    <trkseg>
      <trkpt lat="49.44468" lon="1.0629">
        <ele>4</ele>
        <time>2013-02-18T17:56:05Z</time>
      </trkpt>
      <trkpt lat="49.4446" lon="1.06308">
        <ele>4</ele>
        <time>2013-02-18T18:05:06Z</time>
      </trkpt>
      <trkpt lat="49.4446" lon="1.06315">
        <ele>4</ele>
        <time>2013-02-18T18:05:08Z</time>
      </trkpt>
      <trkpt lat="49.44458" lon="1.06343">
        <ele>4</ele>
        <time>2013-02-18T18:05:14Z</time>
      </trkpt>
      <trkpt lat="49.44458" lon="1.06365">
        <ele>4</ele>
        <time>2013-02-18T18:05:22Z</time>
      </trkpt>
      <trkpt lat="49.4446" lon="1.06343">
        <ele>4</ele>
        <time>2013-02-18T18:05:35Z</time>
      </trkpt>
      <trkpt lat="49.4445" lon="1.0636">
        <ele>4</ele>
        <time>2013-02-18T18:06:05Z</time>
      </trkpt>
      <trkpt lat="49.4445" lon="1.06383">
        <ele>4</ele>
        <time>2013-02-18T18:06:09Z</time>
      </trkpt>
      <trkpt lat="49.4445" lon="1.06405">
        <ele>4</ele>
        <time>2013-02-18T18:06:13Z</time>
      </trkpt>
      <trkpt lat="49.44453" lon="1.0643">
        <ele>4</ele>
        <time>2013-02-18T18:06:18Z</time>
      </trkpt>
      <trkpt lat="49.44453" lon="1.06455">
        <ele>4</ele>
        <time>2013-02-18T18:06:23Z</time>
      </trkpt>
      <trkpt lat="49.4445" lon="1.06478">
        <ele>4</ele>
        <time>2013-02-18T18:06:28Z</time>
      </trkpt>
      <trkpt lat="49.44448" lon="1.06503">
        <ele>5</ele>
        <time>2013-02-18T18:06:33Z</time>
      </trkpt>
      <trkpt lat="49.44448" lon="1.06525">
        <ele>5</ele>
        <time>2013-02-18T18:06:37Z</time>
      </trkpt>
      <trkpt lat="49.44448" lon="1.06548">
        <ele>5</ele>
        <time>2013-02-18T18:06:41Z</time>
      </trkpt>
      <trkpt lat="49.4445" lon="1.06573">
        <ele>5</ele>
        <time>2013-02-18T18:06:45Z</time>
      </trkpt>
      <trkpt lat="49.44445" lon="1.06595">
        <ele>5</ele>
        <time>2013-02-18T18:06:49Z</time>
      </trkpt>
      <trkpt lat="49.44443" lon="1.06618">
        <ele>5</ele>
        <time>2013-02-18T18:06:54Z</time>
      </trkpt>
      <trkpt lat="49.44438" lon="1.06663">
        <ele>5</ele>
        <time>2013-02-18T18:07:02Z</time>
      </trkpt>
      <trkpt lat="49.44435" lon="1.0669">
        <ele>5</ele>
        <time>2013-02-18T18:07:07Z</time>
      </trkpt>
      <trkpt lat="49.44433" lon="1.06713">
        <ele>5</ele>
        <time>2013-02-18T18:07:11Z</time>
      </trkpt>
      <trkpt lat="49.44428" lon="1.06755">
        <ele>5</ele>
        <time>2013-02-18T18:07:19Z</time>
      </trkpt>
      <trkpt lat="49.4442" lon="1.0682">
        <ele>5</ele>
        <time>2013-02-18T18:07:31Z</time>
      </trkpt>
      <trkpt lat="49.44415" lon="1.0685">
        <ele>5</ele>
        <time>2013-02-18T18:07:36Z</time>
      </trkpt>
      <trkpt lat="49.44413" lon="1.06875">
        <ele>5</ele>
        <time>2013-02-18T18:07:40Z</time>
      </trkpt>
      <trkpt lat="49.44408" lon="1.06903">
        <ele>5</ele>
        <time>2013-02-18T18:07:44Z</time>
      </trkpt>
      <trkpt lat="49.44388" lon="1.07015">
        <ele>5</ele>
        <time>2013-02-18T18:08:01Z</time>
      </trkpt>
      <trkpt lat="49.44378" lon="1.07063">
        <ele>5</ele>
        <time>2013-02-18T18:08:09Z</time>
      </trkpt>
      <trkpt lat="49.44368" lon="1.07093">
        <ele>5</ele>
        <time>2013-02-18T18:08:14Z</time>
      </trkpt>
      <trkpt lat="49.44363" lon="1.0712">
        <ele>5</ele>
        <time>2013-02-18T18:08:18Z</time>
      </trkpt>
      <trkpt lat="49.44358" lon="1.0714">
        <ele>5</ele>
        <time>2013-02-18T18:08:21Z</time>
      </trkpt>
      <trkpt lat="49.44353" lon="1.0716">
        <ele>5</ele>
        <time>2013-02-18T18:08:24Z</time>
      </trkpt>
      <trkpt lat="49.44348" lon="1.0718">
        <ele>5</ele>
        <time>2013-02-18T18:08:28Z</time>
      </trkpt>
      <trkpt lat="49.4434" lon="1.072">
        <ele>5</ele>
        <time>2013-02-18T18:08:32Z</time>
      </trkpt>
      <trkpt lat="49.44333" lon="1.07223">
        <ele>5</ele>
        <time>2013-02-18T18:08:36Z</time>
      </trkpt>
      <trkpt lat="49.44328" lon="1.07243">
        <ele>5</ele>
        <time>2013-02-18T18:08:40Z</time>
      </trkpt>
      <trkpt lat="49.4432" lon="1.07265">
        <ele>4</ele>
        <time>2013-02-18T18:08:44Z</time>
      </trkpt>
      <trkpt lat="49.44308" lon="1.07308">
        <ele>4</ele>
        <time>2013-02-18T18:08:52Z</time>
      </trkpt>
      <trkpt lat="49.44293" lon="1.07358">
        <ele>4</ele>
        <time>2013-02-18T18:09:02Z</time>
      </trkpt>
      <trkpt lat="49.44268" lon="1.07448">
        <ele>4</ele>
        <time>2013-02-18T18:09:20Z</time>
      </trkpt>
      <trkpt lat="49.4426" lon="1.07468">
        <ele>4</ele>
        <time>2013-02-18T18:09:24Z</time>
      </trkpt>
      <trkpt lat="49.44255" lon="1.07488">
        <ele>4</ele>
        <time>2013-02-18T18:09:28Z</time>
      </trkpt>
      <trkpt lat="49.44248" lon="1.0751">
        <ele>5</ele>
        <time>2013-02-18T18:09:32Z</time>
      </trkpt>
      <trkpt lat="49.4424" lon="1.07538">
        <ele>5</ele>
        <time>2013-02-18T18:09:37Z</time>
      </trkpt>
      <trkpt lat="49.44223" lon="1.07593">
        <ele>4</ele>
        <time>2013-02-18T18:09:47Z</time>
      </trkpt>
      <trkpt lat="49.4421" lon="1.07638">
        <ele>5</ele>
        <time>2013-02-18T18:09:55Z</time>
      </trkpt>
      <trkpt lat="49.44203" lon="1.07663">
        <ele>5</ele>
        <time>2013-02-18T18:09:59Z</time>
      </trkpt>
      <trkpt lat="49.44193" lon="1.07698">
        <ele>4</ele>
        <time>2013-02-18T18:10:05Z</time>
      </trkpt>
      <trkpt lat="49.44193" lon="1.07723">
        <ele>4</ele>
        <time>2013-02-18T18:10:09Z</time>
      </trkpt>
      <trkpt lat="49.44185" lon="1.07745">
        <ele>4</ele>
        <time>2013-02-18T18:10:13Z</time>
      </trkpt>
      <trkpt lat="49.4417" lon="1.0778">
        <ele>5</ele>
        <time>2013-02-18T18:10:20Z</time>
      </trkpt>
      <trkpt lat="49.44165" lon="1.078">
        <ele>5</ele>
        <time>2013-02-18T18:10:23Z</time>
      </trkpt>
      <trkpt lat="49.44158" lon="1.07818">
        <ele>5</ele>
        <time>2013-02-18T18:10:26Z</time>
      </trkpt>
      <trkpt lat="49.44153" lon="1.07838">
        <ele>5</ele>
        <time>2013-02-18T18:10:29Z</time>
      </trkpt>
      <trkpt lat="49.44138" lon="1.07893">
        <ele>4</ele>
        <time>2013-02-18T18:10:38Z</time>
      </trkpt>
      <trkpt lat="49.44133" lon="1.07913">
        <ele>5</ele>
        <time>2013-02-18T18:10:41Z</time>
      </trkpt>
      <trkpt lat="49.44125" lon="1.0793">
        <ele>5</ele>
        <time>2013-02-18T18:10:44Z</time>
      </trkpt>
      <trkpt lat="49.44118" lon="1.0796">
        <ele>5</ele>
        <time>2013-02-18T18:10:50Z</time>
      </trkpt>
      <trkpt lat="49.4411" lon="1.0798">
        <ele>5</ele>
        <time>2013-02-18T18:10:54Z</time>
      </trkpt>
      <trkpt lat="49.44103" lon="1.08003">
        <ele>4</ele>
        <time>2013-02-18T18:10:59Z</time>
      </trkpt>
      <trkpt lat="49.44095" lon="1.0803">
        <ele>4</ele>
        <time>2013-02-18T18:11:04Z</time>
      </trkpt>
      <trkpt lat="49.44088" lon="1.08055">
        <ele>5</ele>
        <time>2013-02-18T18:11:09Z</time>
      </trkpt>
      <trkpt lat="49.4407" lon="1.08108">
        <ele>5</ele>
        <time>2013-02-18T18:11:19Z</time>
      </trkpt>
      <trkpt lat="49.4405" lon="1.0817">
        <ele>4</ele>
        <time>2013-02-18T18:11:31Z</time>
      </trkpt>
      <trkpt lat="49.4401" lon="1.08303">
        <ele>4</ele>
        <time>2013-02-18T18:11:54Z</time>
      </trkpt>
      <trkpt lat="49.44003" lon="1.08333">
        <ele>4</ele>
        <time>2013-02-18T18:11:59Z</time>
      </trkpt>
      <trkpt lat="49.43995" lon="1.08355">
        <ele>4</ele>
        <time>2013-02-18T18:12:03Z</time>
      </trkpt>
      <trkpt lat="49.43985" lon="1.0839">
        <ele>4</ele>
        <time>2013-02-18T18:12:09Z</time>
      </trkpt>
      <trkpt lat="49.43978" lon="1.08415">
        <ele>4</ele>
        <time>2013-02-18T18:12:13Z</time>
      </trkpt>
      <trkpt lat="49.4397" lon="1.08443">
        <ele>4</ele>
        <time>2013-02-18T18:12:18Z</time>
      </trkpt>
      <trkpt lat="49.43963" lon="1.0846">
        <ele>5</ele>
        <time>2013-02-18T18:12:21Z</time>
      </trkpt>
      <trkpt lat="49.43958" lon="1.08483">
        <ele>5</ele>
        <time>2013-02-18T18:12:25Z</time>
      </trkpt>
      <trkpt lat="49.4395" lon="1.085">
        <ele>5</ele>
        <time>2013-02-18T18:12:28Z</time>
      </trkpt>
      <trkpt lat="49.43943" lon="1.08523">
        <ele>5</ele>
        <time>2013-02-18T18:12:32Z</time>
      </trkpt>
      <trkpt lat="49.43935" lon="1.08553">
        <ele>5</ele>
        <time>2013-02-18T18:12:37Z</time>
      </trkpt>
      <trkpt lat="49.43923" lon="1.086">
        <ele>5</ele>
        <time>2013-02-18T18:12:45Z</time>
      </trkpt>
      <trkpt lat="49.4389" lon="1.08718">
        <ele>5</ele>
        <time>2013-02-18T18:13:05Z</time>
      </trkpt>
      <trkpt lat="49.4388" lon="1.08768">
        <ele>5</ele>
        <time>2013-02-18T18:13:13Z</time>
      </trkpt>
      <trkpt lat="49.4387" lon="1.08803">
        <ele>5</ele>
        <time>2013-02-18T18:13:19Z</time>
      </trkpt>
      <trkpt lat="49.43855" lon="1.08868">
        <ele>5</ele>
        <time>2013-02-18T18:13:30Z</time>
      </trkpt>
      <trkpt lat="49.43845" lon="1.089">
        <ele>4</ele>
        <time>2013-02-18T18:13:36Z</time>
      </trkpt>
      <trkpt lat="49.4384" lon="1.08925">
        <ele>4</ele>
        <time>2013-02-18T18:13:40Z</time>
      </trkpt>
      <trkpt lat="49.43833" lon="1.0895">
        <ele>5</ele>
        <time>2013-02-18T18:13:44Z</time>
      </trkpt>
      <trkpt lat="49.43828" lon="1.08978">
        <ele>5</ele>
        <time>2013-02-18T18:13:48Z</time>
      </trkpt>
      <trkpt lat="49.4382" lon="1.09">
        <ele>5</ele>
        <time>2013-02-18T18:13:52Z</time>
      </trkpt>
      <trkpt lat="49.43815" lon="1.0902">
        <ele>5</ele>
        <time>2013-02-18T18:13:55Z</time>
      </trkpt>
      <trkpt lat="49.43805" lon="1.09055">
        <ele>5</ele>
        <time>2013-02-18T18:14:01Z</time>
      </trkpt>
      <trkpt lat="49.438" lon="1.0908">
        <ele>4</ele>
        <time>2013-02-18T18:14:05Z</time>
      </trkpt>
      <trkpt lat="49.43793" lon="1.09103">
        <ele>4</ele>
        <time>2013-02-18T18:14:09Z</time>
      </trkpt>
      <trkpt lat="49.43788" lon="1.09123">
        <ele>4</ele>
        <time>2013-02-18T18:14:12Z</time>
      </trkpt>
      <trkpt lat="49.43788" lon="1.09148">
        <ele>4</ele>
        <time>2013-02-18T18:14:16Z</time>
      </trkpt>
      <trkpt lat="49.43785" lon="1.09175">
        <ele>5</ele>
        <time>2013-02-18T18:14:20Z</time>
      </trkpt>
      <trkpt lat="49.4378" lon="1.092">
        <ele>5</ele>
        <time>2013-02-18T18:14:24Z</time>
      </trkpt>
      <trkpt lat="49.4377" lon="1.09218">
        <ele>5</ele>
        <time>2013-02-18T18:14:27Z</time>
      </trkpt>
      <trkpt lat="49.43763" lon="1.09243">
        <ele>5</ele>
        <time>2013-02-18T18:14:31Z</time>
      </trkpt>
      <trkpt lat="49.43758" lon="1.09265">
        <ele>4</ele>
        <time>2013-02-18T18:14:35Z</time>
      </trkpt>
      <trkpt lat="49.43753" lon="1.0929">
        <ele>5</ele>
        <time>2013-02-18T18:14:39Z</time>
      </trkpt>
      <trkpt lat="49.43745" lon="1.09313">
        <ele>5</ele>
        <time>2013-02-18T18:14:43Z</time>
      </trkpt>
      <trkpt lat="49.4374" lon="1.09335">
        <ele>5</ele>
        <time>2013-02-18T18:14:47Z</time>
      </trkpt>
      <trkpt lat="49.43725" lon="1.09405">
        <ele>5</ele>
        <time>2013-02-18T18:14:59Z</time>
      </trkpt>
      <trkpt lat="49.43718" lon="1.09448">
        <ele>5</ele>
        <time>2013-02-18T18:15:06Z</time>
      </trkpt>
      <trkpt lat="49.43713" lon="1.09473">
        <ele>5</ele>
        <time>2013-02-18T18:15:10Z</time>
      </trkpt>
      <trkpt lat="49.43703" lon="1.09513">
        <ele>5</ele>
        <time>2013-02-18T18:15:18Z</time>
      </trkpt>
      <trkpt lat="49.437" lon="1.09538">
        <ele>5</ele>
        <time>2013-02-18T18:15:23Z</time>
      </trkpt>
      <trkpt lat="49.43703" lon="1.0956">
        <ele>5</ele>
        <time>2013-02-18T18:15:40Z</time>
      </trkpt>
      <trkpt lat="49.43703" lon="1.09583">
        <ele>5</ele>
        <time>2013-02-18T18:16:05Z</time>
      </trkpt>
      <trkpt lat="49.4372" lon="1.09593">
        <ele>6</ele>
        <time>2013-02-18T18:16:12Z</time>
      </trkpt>
      <trkpt lat="49.43748" lon="1.09608">
        <ele>6</ele>
        <time>2013-02-18T18:16:18Z</time>
      </trkpt>
      <trkpt lat="49.43763" lon="1.09605">
        <ele>6</ele>
        <time>2013-02-18T18:16:25Z</time>
      </trkpt>
      <trkpt lat="49.43765" lon="1.0958">
        <ele>6</ele>
        <time>2013-02-18T18:16:30Z</time>
      </trkpt>
      <trkpt lat="49.43773" lon="1.0956">
        <ele>6</ele>
        <time>2013-02-18T18:16:41Z</time>
      </trkpt>
      <trkpt lat="49.43783" lon="1.09575">
        <ele>7</ele>
        <time>2013-02-18T18:16:48Z</time>
      </trkpt>
      <trkpt lat="49.43795" lon="1.09585">
        <ele>7</ele>
        <time>2013-02-18T18:16:54Z</time>
      </trkpt>
      <trkpt lat="49.438" lon="1.09605">
        <ele>7</ele>
        <time>2013-02-18T18:17:00Z</time>
      </trkpt>
      <trkpt lat="49.438" lon="1.09628">
        <ele>7</ele>
        <time>2013-02-18T18:17:05Z</time>
      </trkpt>
      <trkpt lat="49.43793" lon="1.09645">
        <ele>7</ele>
        <time>2013-02-18T18:17:15Z</time>
      </trkpt>
      <trkpt lat="49.43793" lon="1.0967">
        <ele>7</ele>
        <time>2013-02-18T18:17:25Z</time>
      </trkpt>
      <trkpt lat="49.4379" lon="1.09695">
        <ele>7</ele>
        <time>2013-02-18T18:17:29Z</time>
      </trkpt>
      <trkpt lat="49.43785" lon="1.0972">
        <ele>7</ele>
        <time>2013-02-18T18:17:33Z</time>
      </trkpt>
      <trkpt lat="49.43785" lon="1.09743">
        <ele>7</ele>
        <time>2013-02-18T18:17:36Z</time>
      </trkpt>
      <trkpt lat="49.43785" lon="1.09765">
        <ele>7</ele>
        <time>2013-02-18T18:17:39Z</time>
      </trkpt>
      <trkpt lat="49.43788" lon="1.09788">
        <ele>7</ele>
        <time>2013-02-18T18:17:43Z</time>
      </trkpt>
      <trkpt lat="49.43793" lon="1.09818">
        <ele>7</ele>
        <time>2013-02-18T18:17:48Z</time>
      </trkpt>
      <trkpt lat="49.43793" lon="1.09843">
        <ele>7</ele>
        <time>2013-02-18T18:17:52Z</time>
      </trkpt>
      <trkpt lat="49.43793" lon="1.09865">
        <ele>8</ele>
        <time>2013-02-18T18:17:57Z</time>
      </trkpt>
      <trkpt lat="49.43793" lon="1.0989">
        <ele>8</ele>
        <time>2013-02-18T18:18:01Z</time>
      </trkpt>
      <trkpt lat="49.43798" lon="1.09915">
        <ele>8</ele>
        <time>2013-02-18T18:18:05Z</time>
      </trkpt>
      <trkpt lat="49.43798" lon="1.09938">
        <ele>8</ele>
        <time>2013-02-18T18:18:08Z</time>
      </trkpt>
      <trkpt lat="49.438" lon="1.09963">
        <ele>8</ele>
        <time>2013-02-18T18:18:13Z</time>
      </trkpt>
      <trkpt lat="49.438" lon="1.09985">
        <ele>8</ele>
        <time>2013-02-18T18:18:18Z</time>
      </trkpt>
      <trkpt lat="49.43808" lon="1.10005">
        <ele>8</ele>
        <time>2013-02-18T18:18:23Z</time>
      </trkpt>
      <trkpt lat="49.4381" lon="1.10028">
        <ele>8</ele>
        <time>2013-02-18T18:18:29Z</time>
      </trkpt>
      <trkpt lat="49.4382" lon="1.10045">
        <ele>8</ele>
        <time>2013-02-18T18:18:38Z</time>
      </trkpt>
      <trkpt lat="49.43823" lon="1.10068">
        <ele>8</ele>
        <time>2013-02-18T18:18:44Z</time>
      </trkpt>
      <trkpt lat="49.43833" lon="1.10085">
        <ele>8</ele>
        <time>2013-02-18T18:18:50Z</time>
      </trkpt>
      <trkpt lat="49.43845" lon="1.10095">
        <ele>8</ele>
        <time>2013-02-18T18:18:54Z</time>
      </trkpt>
      <trkpt lat="49.43858" lon="1.10105">
        <ele>8</ele>
        <time>2013-02-18T18:18:58Z</time>
      </trkpt>
      <trkpt lat="49.43873" lon="1.10113">
        <ele>8</ele>
        <time>2013-02-18T18:19:02Z</time>
      </trkpt>
      <trkpt lat="49.43888" lon="1.10128">
        <ele>8</ele>
        <time>2013-02-18T18:19:07Z</time>
      </trkpt>
      <trkpt lat="49.439" lon="1.10138">
        <ele>8</ele>
        <time>2013-02-18T18:19:11Z</time>
      </trkpt>
      <trkpt lat="49.43913" lon="1.1015">
        <ele>8</ele>
        <time>2013-02-18T18:19:17Z</time>
      </trkpt>
      <trkpt lat="49.43918" lon="1.1013">
        <ele>8</ele>
        <time>2013-02-18T18:19:21Z</time>
      </trkpt>
      <trkpt lat="49.43923" lon="1.1011">
        <ele>8</ele>
        <time>2013-02-18T18:19:25Z</time>
      </trkpt>
      <trkpt lat="49.43933" lon="1.1008">
        <ele>8</ele>
        <time>2013-02-18T18:19:31Z</time>
      </trkpt>
      <trkpt lat="49.43943" lon="1.10058">
        <ele>8</ele>
        <time>2013-02-18T18:19:37Z</time>
      </trkpt>
      <trkpt lat="49.43945" lon="1.10035">
        <ele>8</ele>
        <time>2013-02-18T18:19:44Z</time>
      </trkpt>
      <trkpt lat="49.43953" lon="1.10015">
        <ele>9</ele>
        <time>2013-02-18T18:19:48Z</time>
      </trkpt>
      <trkpt lat="49.4396" lon="1.09998">
        <ele>9</ele>
        <time>2013-02-18T18:19:52Z</time>
      </trkpt>
      <trkpt lat="49.43968" lon="1.0998">
        <ele>9</ele>
        <time>2013-02-18T18:19:56Z</time>
      </trkpt>
      <trkpt lat="49.43973" lon="1.0996">
        <ele>9</ele>
        <time>2013-02-18T18:20:00Z</time>
      </trkpt>
      <trkpt lat="49.4398" lon="1.0993">
        <ele>9</ele>
        <time>2013-02-18T18:20:05Z</time>
      </trkpt>
      <trkpt lat="49.43983" lon="1.09908">
        <ele>10</ele>
        <time>2013-02-18T18:20:10Z</time>
      </trkpt>
      <trkpt lat="49.43983" lon="1.09885">
        <ele>10</ele>
        <time>2013-02-18T18:20:15Z</time>
      </trkpt>
      <trkpt lat="49.43985" lon="1.0986">
        <ele>11</ele>
        <time>2013-02-18T18:20:20Z</time>
      </trkpt>
      <trkpt lat="49.4399" lon="1.0984">
        <ele>11</ele>
        <time>2013-02-18T18:20:24Z</time>
      </trkpt>
      <trkpt lat="49.43995" lon="1.0982">
        <ele>11</ele>
        <time>2013-02-18T18:20:28Z</time>
      </trkpt>
      <trkpt lat="49.43998" lon="1.09798">
        <ele>12</ele>
        <time>2013-02-18T18:20:35Z</time>
      </trkpt>
      <trkpt lat="49.43995" lon="1.09773">
        <ele>12</ele>
        <time>2013-02-18T18:20:42Z</time>
      </trkpt>
      <trkpt lat="49.43998" lon="1.0975">
        <ele>12</ele>
        <time>2013-02-18T18:20:47Z</time>
      </trkpt>
      <trkpt lat="49.44003" lon="1.09723">
        <ele>12</ele>
        <time>2013-02-18T18:20:56Z</time>
      </trkpt>
      <trkpt lat="49.44013" lon="1.09698">
        <ele>13</ele>
        <time>2013-02-18T18:21:01Z</time>
      </trkpt>
      <trkpt lat="49.44025" lon="1.09668">
        <ele>13</ele>
        <time>2013-02-18T18:21:08Z</time>
      </trkpt>
      <trkpt lat="49.44033" lon="1.09648">
        <ele>13</ele>
        <time>2013-02-18T18:21:13Z</time>
      </trkpt>
      <trkpt lat="49.44038" lon="1.09628">
        <ele>14</ele>
        <time>2013-02-18T18:21:17Z</time>
      </trkpt>
      <trkpt lat="49.44045" lon="1.0961">
        <ele>14</ele>
        <time>2013-02-18T18:21:23Z</time>
      </trkpt>
      <trkpt lat="49.44053" lon="1.0959">
        <ele>14</ele>
        <time>2013-02-18T18:21:28Z</time>
      </trkpt>
      <trkpt lat="49.44063" lon="1.09575">
        <ele>14</ele>
        <time>2013-02-18T18:21:32Z</time>
      </trkpt>
      <trkpt lat="49.44075" lon="1.09555">
        <ele>15</ele>
        <time>2013-02-18T18:21:37Z</time>
      </trkpt>
      <trkpt lat="49.44083" lon="1.09538">
        <ele>15</ele>
        <time>2013-02-18T18:21:41Z</time>
      </trkpt>
      <trkpt lat="49.44088" lon="1.09518">
        <ele>16</ele>
        <time>2013-02-18T18:21:45Z</time>
      </trkpt>
      <trkpt lat="49.44085" lon="1.0947">
        <ele>16</ele>
        <time>2013-02-18T18:21:54Z</time>
      </trkpt>
      <trkpt lat="49.44083" lon="1.09445">
        <ele>16</ele>
        <time>2013-02-18T18:22:00Z</time>
      </trkpt>
      <trkpt lat="49.44075" lon="1.09425">
        <ele>15</ele>
        <time>2013-02-18T18:22:08Z</time>
      </trkpt>
      <trkpt lat="49.44063" lon="1.094">
        <ele>15</ele>
        <time>2013-02-18T18:22:13Z</time>
      </trkpt>
      <trkpt lat="49.4405" lon="1.09388">
        <ele>15</ele>
        <time>2013-02-18T18:22:17Z</time>
      </trkpt>
      <trkpt lat="49.4404" lon="1.09373">
        <ele>14</ele>
        <time>2013-02-18T18:22:22Z</time>
      </trkpt>
      <trkpt lat="49.44025" lon="1.09378">
        <ele>14</ele>
        <time>2013-02-18T18:22:30Z</time>
      </trkpt>
      <trkpt lat="49.4401" lon="1.09378">
        <ele>13</ele>
        <time>2013-02-18T18:22:36Z</time>
      </trkpt>
      <trkpt lat="49.43998" lon="1.09395">
        <ele>12</ele>
        <time>2013-02-18T18:22:45Z</time>
      </trkpt>
      <trkpt lat="49.43995" lon="1.09418">
        <ele>12</ele>
        <time>2013-02-18T18:22:49Z</time>
      </trkpt>
      <trkpt lat="49.4399" lon="1.09443">
        <ele>12</ele>
        <time>2013-02-18T18:22:53Z</time>
      </trkpt>
      <trkpt lat="49.43985" lon="1.09465">
        <ele>12</ele>
        <time>2013-02-18T18:22:57Z</time>
      </trkpt>
      <trkpt lat="49.4397" lon="1.0947">
        <ele>11</ele>
        <time>2013-02-18T18:23:00Z</time>
      </trkpt>
      <trkpt lat="49.43955" lon="1.09468">
        <ele>11</ele>
        <time>2013-02-18T18:23:03Z</time>
      </trkpt>
      <trkpt lat="49.43943" lon="1.09458">
        <ele>10</ele>
        <time>2013-02-18T18:23:08Z</time>
      </trkpt>
      <trkpt lat="49.43933" lon="1.09443">
        <ele>10</ele>
        <time>2013-02-18T18:23:29Z</time>
      </trkpt>
      <trkpt lat="49.4394" lon="1.09418">
        <ele>10</ele>
        <time>2013-02-18T18:23:33Z</time>
      </trkpt>
      <trkpt lat="49.43945" lon="1.09395">
        <ele>10</ele>
        <time>2013-02-18T18:23:37Z</time>
      </trkpt>
      <trkpt lat="49.43948" lon="1.09373">
        <ele>10</ele>
        <time>2013-02-18T18:23:41Z</time>
      </trkpt>
      <trkpt lat="49.43963" lon="1.09378">
        <ele>11</ele>
        <time>2013-02-18T18:23:45Z</time>
      </trkpt>
      <trkpt lat="49.43978" lon="1.0938">
        <ele>12</ele>
        <time>2013-02-18T18:23:49Z</time>
      </trkpt>
      <trkpt lat="49.43993" lon="1.09388">
        <ele>12</ele>
        <time>2013-02-18T18:23:53Z</time>
      </trkpt>
      <trkpt lat="49.44008" lon="1.09393">
        <ele>13</ele>
        <time>2013-02-18T18:23:59Z</time>
      </trkpt>
      <trkpt lat="49.44025" lon="1.09383">
        <ele>14</ele>
        <time>2013-02-18T18:24:04Z</time>
      </trkpt>
      <trkpt lat="49.4404" lon="1.09375">
        <ele>14</ele>
        <time>2013-02-18T18:24:09Z</time>
      </trkpt>
      <trkpt lat="49.44055" lon="1.09383">
        <ele>15</ele>
        <time>2013-02-18T18:24:13Z</time>
      </trkpt>
      <trkpt lat="49.4407" lon="1.09388">
        <ele>15</ele>
        <time>2013-02-18T18:24:17Z</time>
      </trkpt>
      <trkpt lat="49.44083" lon="1.09398">
        <ele>16</ele>
        <time>2013-02-18T18:24:21Z</time>
      </trkpt>
      <trkpt lat="49.44095" lon="1.09413">
        <ele>16</ele>
        <time>2013-02-18T18:24:26Z</time>
      </trkpt>
      <trkpt lat="49.4411" lon="1.09423">
        <ele>16</ele>
        <time>2013-02-18T18:24:33Z</time>
      </trkpt>
      <trkpt lat="49.44123" lon="1.09435">
        <ele>16</ele>
        <time>2013-02-18T18:24:38Z</time>
      </trkpt>
      <trkpt lat="49.4414" lon="1.09445">
        <ele>17</ele>
        <time>2013-02-18T18:24:43Z</time>
      </trkpt>
      <trkpt lat="49.44153" lon="1.09458">
        <ele>17</ele>
        <time>2013-02-18T18:24:48Z</time>
      </trkpt>
      <trkpt lat="49.44148" lon="1.09483">
        <ele>17</ele>
        <time>2013-02-18T18:24:53Z</time>
      </trkpt>
      <trkpt lat="49.44143" lon="1.0951">
        <ele>17</ele>
        <time>2013-02-18T18:24:58Z</time>
      </trkpt>
      <trkpt lat="49.44135" lon="1.09528">
        <ele>17</ele>
        <time>2013-02-18T18:25:02Z</time>
      </trkpt>
      <trkpt lat="49.44133" lon="1.0955">
        <ele>16</ele>
        <time>2013-02-18T18:25:06Z</time>
      </trkpt>
      <trkpt lat="49.44145" lon="1.09563">
        <ele>16</ele>
        <time>2013-02-18T18:25:13Z</time>
      </trkpt>
      <trkpt lat="49.4416" lon="1.09565">
        <ele>17</ele>
        <time>2013-02-18T18:25:16Z</time>
      </trkpt>
      <trkpt lat="49.44175" lon="1.09575">
        <ele>17</ele>
        <time>2013-02-18T18:25:20Z</time>
      </trkpt>
      <trkpt lat="49.44193" lon="1.09588">
        <ele>17</ele>
        <time>2013-02-18T18:25:25Z</time>
      </trkpt>
      <trkpt lat="49.4421" lon="1.09593">
        <ele>17</ele>
        <time>2013-02-18T18:25:30Z</time>
      </trkpt>
      <trkpt lat="49.44215" lon="1.09613">
        <ele>17</ele>
        <time>2013-02-18T18:25:38Z</time>
      </trkpt>
      <trkpt lat="49.44218" lon="1.09635">
        <ele>17</ele>
        <time>2013-02-18T18:25:47Z</time>
      </trkpt>
      <trkpt lat="49.44228" lon="1.0965">
        <ele>17</ele>
        <time>2013-02-18T18:25:53Z</time>
      </trkpt>
      <trkpt lat="49.4423" lon="1.09673">
        <ele>17</ele>
        <time>2013-02-18T18:25:57Z</time>
      </trkpt>
      <trkpt lat="49.4423" lon="1.09695">
        <ele>16</ele>
        <time>2013-02-18T18:26:01Z</time>
      </trkpt>
      <trkpt lat="49.44225" lon="1.09718">
        <ele>16</ele>
        <time>2013-02-18T18:26:05Z</time>
      </trkpt>
      <trkpt lat="49.4422" lon="1.09738">
        <ele>16</ele>
        <time>2013-02-18T18:26:10Z</time>
      </trkpt>
      <trkpt lat="49.4422" lon="1.0976">
        <ele>16</ele>
        <time>2013-02-18T18:26:20Z</time>
      </trkpt>
      <trkpt lat="49.44213" lon="1.0978">
        <ele>15</ele>
        <time>2013-02-18T18:26:26Z</time>
      </trkpt>
      <trkpt lat="49.44208" lon="1.09805">
        <ele>15</ele>
        <time>2013-02-18T18:26:32Z</time>
      </trkpt>
      <trkpt lat="49.44198" lon="1.0982">
        <ele>15</ele>
        <time>2013-02-18T18:26:40Z</time>
      </trkpt>
      <trkpt lat="49.44193" lon="1.0984">
        <ele>14</ele>
        <time>2013-02-18T18:26:46Z</time>
      </trkpt>
      <trkpt lat="49.4419" lon="1.09865">
        <ele>14</ele>
        <time>2013-02-18T18:26:52Z</time>
      </trkpt>
      <trkpt lat="49.4418" lon="1.09885">
        <ele>14</ele>
        <time>2013-02-18T18:26:55Z</time>
      </trkpt>
      <trkpt lat="49.44165" lon="1.09898">
        <ele>13</ele>
        <time>2013-02-18T18:27:00Z</time>
      </trkpt>
      <trkpt lat="49.44158" lon="1.09915">
        <ele>13</ele>
        <time>2013-02-18T18:27:05Z</time>
      </trkpt>
      <trkpt lat="49.44158" lon="1.09938">
        <ele>12</ele>
        <time>2013-02-18T18:27:10Z</time>
      </trkpt>
      <trkpt lat="49.44155" lon="1.0996">
        <ele>12</ele>
        <time>2013-02-18T18:27:14Z</time>
      </trkpt>
      <trkpt lat="49.44153" lon="1.09988">
        <ele>12</ele>
        <time>2013-02-18T18:27:20Z</time>
      </trkpt>
      <trkpt lat="49.44143" lon="1.10008">
        <ele>12</ele>
        <time>2013-02-18T18:27:28Z</time>
      </trkpt>
      <trkpt lat="49.44143" lon="1.10033">
        <ele>12</ele>
        <time>2013-02-18T18:27:34Z</time>
      </trkpt>
      <trkpt lat="49.44143" lon="1.10063">
        <ele>12</ele>
        <time>2013-02-18T18:27:39Z</time>
      </trkpt>
      <trkpt lat="49.44143" lon="1.10088">
        <ele>12</ele>
        <time>2013-02-18T18:27:44Z</time>
      </trkpt>
      <trkpt lat="49.4414" lon="1.1011">
        <ele>11</ele>
        <time>2013-02-18T18:27:48Z</time>
      </trkpt>
      <trkpt lat="49.4414" lon="1.10135">
        <ele>11</ele>
        <time>2013-02-18T18:27:53Z</time>
      </trkpt>
      <trkpt lat="49.4414" lon="1.1016">
        <ele>11</ele>
        <time>2013-02-18T18:27:57Z</time>
      </trkpt>
      <trkpt lat="49.44143" lon="1.10195">
        <ele>11</ele>
        <time>2013-02-18T18:28:02Z</time>
      </trkpt>
      <trkpt lat="49.4414" lon="1.1022">
        <ele>11</ele>
        <time>2013-02-18T18:28:06Z</time>
      </trkpt>
      <trkpt lat="49.44135" lon="1.1024">
        <ele>11</ele>
        <time>2013-02-18T18:28:11Z</time>
      </trkpt>
      <trkpt lat="49.44135" lon="1.10263">
        <ele>11</ele>
        <time>2013-02-18T18:28:24Z</time>
      </trkpt>
      <trkpt lat="49.44143" lon="1.10285">
        <ele>11</ele>
        <time>2013-02-18T18:28:28Z</time>
      </trkpt>
      <trkpt lat="49.4415" lon="1.10308">
        <ele>11</ele>
        <time>2013-02-18T18:28:32Z</time>
      </trkpt>
      <trkpt lat="49.44163" lon="1.10318">
        <ele>11</ele>
        <time>2013-02-18T18:28:38Z</time>
      </trkpt>
      <trkpt lat="49.44178" lon="1.1031">
        <ele>11</ele>
        <time>2013-02-18T18:28:41Z</time>
      </trkpt>
      <trkpt lat="49.44195" lon="1.10298">
        <ele>11</ele>
        <time>2013-02-18T18:28:45Z</time>
      </trkpt>
      <trkpt lat="49.44203" lon="1.10275">
        <ele>11</ele>
        <time>2013-02-18T18:28:48Z</time>
      </trkpt>
      <trkpt lat="49.44213" lon="1.10255">
        <ele>12</ele>
        <time>2013-02-18T18:28:51Z</time>
      </trkpt>
      <trkpt lat="49.44223" lon="1.10233">
        <ele>12</ele>
        <time>2013-02-18T18:28:54Z</time>
      </trkpt>
      <trkpt lat="49.44233" lon="1.10215">
        <ele>12</ele>
        <time>2013-02-18T18:28:57Z</time>
      </trkpt>
      <trkpt lat="49.44245" lon="1.10203">
        <ele>12</ele>
        <time>2013-02-18T18:29:00Z</time>
      </trkpt>
      <trkpt lat="49.44258" lon="1.10188">
        <ele>13</ele>
        <time>2013-02-18T18:29:03Z</time>
      </trkpt>
      <trkpt lat="49.44265" lon="1.1017">
        <ele>14</ele>
        <time>2013-02-18T18:29:06Z</time>
      </trkpt>
      <trkpt lat="49.44278" lon="1.10158">
        <ele>15</ele>
        <time>2013-02-18T18:29:11Z</time>
      </trkpt>
      <trkpt lat="49.44293" lon="1.10163">
        <ele>15</ele>
        <time>2013-02-18T18:29:15Z</time>
      </trkpt>
      <trkpt lat="49.4431" lon="1.10163">
        <ele>16</ele>
        <time>2013-02-18T18:29:20Z</time>
      </trkpt>
      <trkpt lat="49.44325" lon="1.10168">
        <ele>16</ele>
        <time>2013-02-18T18:29:24Z</time>
      </trkpt>
      <trkpt lat="49.44343" lon="1.10173">
        <ele>17</ele>
        <time>2013-02-18T18:29:28Z</time>
      </trkpt>
      <trkpt lat="49.44358" lon="1.10175">
        <ele>17</ele>
        <time>2013-02-18T18:29:35Z</time>
      </trkpt>
      <trkpt lat="49.44368" lon="1.10158">
        <ele>18</ele>
        <time>2013-02-18T18:29:43Z</time>
      </trkpt>
      <trkpt lat="49.44373" lon="1.10138">
        <ele>19</ele>
        <time>2013-02-18T18:29:48Z</time>
      </trkpt>
      <trkpt lat="49.44383" lon="1.10103">
        <ele>20</ele>
        <time>2013-02-18T18:29:57Z</time>
      </trkpt>
      <trkpt lat="49.44393" lon="1.10083">
        <ele>21</ele>
        <time>2013-02-18T18:30:02Z</time>
      </trkpt>
      <trkpt lat="49.44403" lon="1.10063">
        <ele>21</ele>
        <time>2013-02-18T18:30:07Z</time>
      </trkpt>
      <trkpt lat="49.44413" lon="1.10043">
        <ele>22</ele>
        <time>2013-02-18T18:30:12Z</time>
      </trkpt>
      <trkpt lat="49.44423" lon="1.10025">
        <ele>22</ele>
        <time>2013-02-18T18:30:16Z</time>
      </trkpt>
      <trkpt lat="49.4443" lon="1.10005">
        <ele>22</ele>
        <time>2013-02-18T18:30:20Z</time>
      </trkpt>
      <trkpt lat="49.44438" lon="1.09988">
        <ele>23</ele>
        <time>2013-02-18T18:30:24Z</time>
      </trkpt>
      <trkpt lat="49.44445" lon="1.09968">
        <ele>23</ele>
        <time>2013-02-18T18:30:29Z</time>
      </trkpt>
      <trkpt lat="49.4445" lon="1.09948">
        <ele>24</ele>
        <time>2013-02-18T18:30:35Z</time>
      </trkpt>
      <trkpt lat="49.44433" lon="1.0994">
        <ele>23</ele>
        <time>2013-02-18T18:30:42Z</time>
      </trkpt>
      <trkpt lat="49.44418" lon="1.09933">
        <ele>22</ele>
        <time>2013-02-18T18:30:46Z</time>
      </trkpt>
      <trkpt lat="49.44403" lon="1.09928">
        <ele>21</ele>
        <time>2013-02-18T18:30:50Z</time>
      </trkpt>
      <trkpt lat="49.44388" lon="1.09918">
        <ele>20</ele>
        <time>2013-02-18T18:30:55Z</time>
      </trkpt>
      <trkpt lat="49.44373" lon="1.0992">
        <ele>20</ele>
        <time>2013-02-18T18:30:59Z</time>
      </trkpt>
      <trkpt lat="49.44368" lon="1.09943">
        <ele>20</ele>
        <time>2013-02-18T18:31:02Z</time>
      </trkpt>
      <trkpt lat="49.44355" lon="1.0996">
        <ele>19</ele>
        <time>2013-02-18T18:31:05Z</time>
      </trkpt>
      <trkpt lat="49.4434" lon="1.09968">
        <ele>18</ele>
        <time>2013-02-18T18:31:08Z</time>
      </trkpt>
      <trkpt lat="49.44325" lon="1.09955">
        <ele>18</ele>
        <time>2013-02-18T18:31:12Z</time>
      </trkpt>
      <trkpt lat="49.44315" lon="1.0994">
        <ele>18</ele>
        <time>2013-02-18T18:31:16Z</time>
      </trkpt>
      <trkpt lat="49.44315" lon="1.09915">
        <ele>18</ele>
        <time>2013-02-18T18:31:20Z</time>
      </trkpt>
      <trkpt lat="49.44328" lon="1.099">
        <ele>18</ele>
        <time>2013-02-18T18:31:24Z</time>
      </trkpt>
      <trkpt lat="49.44343" lon="1.0989">
        <ele>18</ele>
        <time>2013-02-18T18:31:29Z</time>
      </trkpt>
      <trkpt lat="49.44358" lon="1.09893">
        <ele>19</ele>
        <time>2013-02-18T18:31:34Z</time>
      </trkpt>
      <trkpt lat="49.44373" lon="1.099">
        <ele>19</ele>
        <time>2013-02-18T18:31:38Z</time>
      </trkpt>
      <trkpt lat="49.44385" lon="1.09885">
        <ele>20</ele>
        <time>2013-02-18T18:31:46Z</time>
      </trkpt>
      <trkpt lat="49.44403" lon="1.09885">
        <ele>21</ele>
        <time>2013-02-18T18:31:51Z</time>
      </trkpt>
      <trkpt lat="49.44413" lon="1.09868">
        <ele>22</ele>
        <time>2013-02-18T18:31:57Z</time>
      </trkpt>
      <trkpt lat="49.4442" lon="1.0985">
        <ele>22</ele>
        <time>2013-02-18T18:32:01Z</time>
      </trkpt>
      <trkpt lat="49.4443" lon="1.0983">
        <ele>22</ele>
        <time>2013-02-18T18:32:05Z</time>
      </trkpt>
      <trkpt lat="49.44438" lon="1.09813">
        <ele>22</ele>
        <time>2013-02-18T18:32:08Z</time>
      </trkpt>
      <trkpt lat="49.44445" lon="1.09793">
        <ele>22</ele>
        <time>2013-02-18T18:32:12Z</time>
      </trkpt>
      <trkpt lat="49.44453" lon="1.09775">
        <ele>23</ele>
        <time>2013-02-18T18:32:15Z</time>
      </trkpt>
      <trkpt lat="49.44455" lon="1.09753">
        <ele>23</ele>
        <time>2013-02-18T18:32:19Z</time>
      </trkpt>
      <trkpt lat="49.4446" lon="1.0973">
        <ele>23</ele>
        <time>2013-02-18T18:32:23Z</time>
      </trkpt>
      <trkpt lat="49.44465" lon="1.09708">
        <ele>23</ele>
        <time>2013-02-18T18:32:27Z</time>
      </trkpt>
      <trkpt lat="49.44473" lon="1.0969">
        <ele>23</ele>
        <time>2013-02-18T18:32:33Z</time>
      </trkpt>
      <trkpt lat="49.44488" lon="1.09688">
        <ele>23</ele>
        <time>2013-02-18T18:32:44Z</time>
      </trkpt>
      <trkpt lat="49.44498" lon="1.0967">
        <ele>24</ele>
        <time>2013-02-18T18:32:49Z</time>
      </trkpt>
      <trkpt lat="49.44503" lon="1.0965">
        <ele>24</ele>
        <time>2013-02-18T18:32:53Z</time>
      </trkpt>
      <trkpt lat="49.44513" lon="1.09618">
        <ele>24</ele>
        <time>2013-02-18T18:33:00Z</time>
      </trkpt>
      <trkpt lat="49.44518" lon="1.09595">
        <ele>25</ele>
        <time>2013-02-18T18:33:05Z</time>
      </trkpt>
      <trkpt lat="49.4452" lon="1.0957">
        <ele>24</ele>
        <time>2013-02-18T18:33:10Z</time>
      </trkpt>
      <trkpt lat="49.44525" lon="1.09548">
        <ele>24</ele>
        <time>2013-02-18T18:33:20Z</time>
      </trkpt>
      <trkpt lat="49.44528" lon="1.09523">
        <ele>24</ele>
        <time>2013-02-18T18:33:24Z</time>
      </trkpt>
      <trkpt lat="49.44528" lon="1.095">
        <ele>24</ele>
        <time>2013-02-18T18:33:28Z</time>
      </trkpt>
      <trkpt lat="49.44533" lon="1.09478">
        <ele>24</ele>
        <time>2013-02-18T18:33:32Z</time>
      </trkpt>
      <trkpt lat="49.44538" lon="1.09455">
        <ele>24</ele>
        <time>2013-02-18T18:33:36Z</time>
      </trkpt>
      <trkpt lat="49.44533" lon="1.09435">
        <ele>23</ele>
        <time>2013-02-18T18:33:42Z</time>
      </trkpt>
      <trkpt lat="49.44525" lon="1.09415">
        <ele>22</ele>
        <time>2013-02-18T18:33:48Z</time>
      </trkpt>
      <trkpt lat="49.44528" lon="1.09393">
        <ele>22</ele>
        <time>2013-02-18T18:33:53Z</time>
      </trkpt>
      <trkpt lat="49.44533" lon="1.09368">
        <ele>22</ele>
        <time>2013-02-18T18:33:57Z</time>
      </trkpt>
      <trkpt lat="49.44538" lon="1.09338">
        <ele>22</ele>
        <time>2013-02-18T18:34:02Z</time>
      </trkpt>
      <trkpt lat="49.4454" lon="1.09313">
        <ele>22</ele>
        <time>2013-02-18T18:34:06Z</time>
      </trkpt>
      <trkpt lat="49.44545" lon="1.09293">
        <ele>22</ele>
        <time>2013-02-18T18:34:10Z</time>
      </trkpt>
      <trkpt lat="49.44545" lon="1.0927">
        <ele>22</ele>
        <time>2013-02-18T18:34:15Z</time>
      </trkpt>
      <trkpt lat="49.4453" lon="1.09268">
        <ele>21</ele>
        <time>2013-02-18T18:34:21Z</time>
      </trkpt>
      <trkpt lat="49.44513" lon="1.0927">
        <ele>21</ele>
        <time>2013-02-18T18:34:25Z</time>
      </trkpt>
      <trkpt lat="49.44495" lon="1.09278">
        <ele>20</ele>
        <time>2013-02-18T18:34:28Z</time>
      </trkpt>
      <trkpt lat="49.4449" lon="1.09298">
        <ele>20</ele>
        <time>2013-02-18T18:34:31Z</time>
      </trkpt>
      <trkpt lat="49.44483" lon="1.09315">
        <ele>20</ele>
        <time>2013-02-18T18:34:34Z</time>
      </trkpt>
      <trkpt lat="49.44475" lon="1.09335">
        <ele>20</ele>
        <time>2013-02-18T18:34:37Z</time>
      </trkpt>
      <trkpt lat="49.4447" lon="1.09358">
        <ele>20</ele>
        <time>2013-02-18T18:34:40Z</time>
      </trkpt>
      <trkpt lat="49.44473" lon="1.0938">
        <ele>20</ele>
        <time>2013-02-18T18:34:44Z</time>
      </trkpt>
      <trkpt lat="49.44488" lon="1.09388">
        <ele>21</ele>
        <time>2013-02-18T18:34:48Z</time>
      </trkpt>
      <trkpt lat="49.4447" lon="1.0939">
        <ele>20</ele>
        <time>2013-02-18T18:35:51Z</time>
      </trkpt>
      <trkpt lat="49.44455" lon="1.09385">
        <ele>20</ele>
        <time>2013-02-18T18:35:56Z</time>
      </trkpt>
      <trkpt lat="49.44443" lon="1.09373">
        <ele>19</ele>
        <time>2013-02-18T18:36:03Z</time>
      </trkpt>
      <trkpt lat="49.4443" lon="1.0936">
        <ele>19</ele>
        <time>2013-02-18T18:36:13Z</time>
      </trkpt>
      <trkpt lat="49.44413" lon="1.09355">
        <ele>19</ele>
        <time>2013-02-18T18:36:17Z</time>
      </trkpt>
      <trkpt lat="49.44395" lon="1.09358">
        <ele>19</ele>
        <time>2013-02-18T18:36:21Z</time>
      </trkpt>
      <trkpt lat="49.44375" lon="1.0935">
        <ele>18</ele>
        <time>2013-02-18T18:36:24Z</time>
      </trkpt>
      <trkpt lat="49.4436" lon="1.0934">
        <ele>18</ele>
        <time>2013-02-18T18:36:28Z</time>
      </trkpt>
      <trkpt lat="49.4435" lon="1.09325">
        <ele>18</ele>
        <time>2013-02-18T18:36:31Z</time>
      </trkpt>
      <trkpt lat="49.44338" lon="1.09313">
        <ele>18</ele>
        <time>2013-02-18T18:36:34Z</time>
      </trkpt>
      <trkpt lat="49.4432" lon="1.09303">
        <ele>18</ele>
        <time>2013-02-18T18:36:38Z</time>
      </trkpt>
      <trkpt lat="49.44305" lon="1.09288">
        <ele>18</ele>
        <time>2013-02-18T18:36:41Z</time>
      </trkpt>
      <trkpt lat="49.4429" lon="1.09288">
        <ele>18</ele>
        <time>2013-02-18T18:36:43Z</time>
      </trkpt>
      <trkpt lat="49.44273" lon="1.0928">
        <ele>18</ele>
        <time>2013-02-18T18:36:46Z</time>
      </trkpt>
      <trkpt lat="49.44263" lon="1.09263">
        <ele>18</ele>
        <time>2013-02-18T18:36:55Z</time>
      </trkpt>
      <trkpt lat="49.44265" lon="1.09235">
        <ele>18</ele>
        <time>2013-02-18T18:36:59Z</time>
      </trkpt>
      <trkpt lat="49.4428" lon="1.09233">
        <ele>18</ele>
        <time>2013-02-18T18:37:05Z</time>
      </trkpt>
      <trkpt lat="49.44295" lon="1.0924">
        <ele>18</ele>
        <time>2013-02-18T18:37:08Z</time>
      </trkpt>
      <trkpt lat="49.4431" lon="1.09253">
        <ele>18</ele>
        <time>2013-02-18T18:37:13Z</time>
      </trkpt>
      <trkpt lat="49.44325" lon="1.09263">
        <ele>18</ele>
        <time>2013-02-18T18:37:17Z</time>
      </trkpt>
      <trkpt lat="49.44343" lon="1.09273">
        <ele>18</ele>
        <time>2013-02-18T18:37:21Z</time>
      </trkpt>
      <trkpt lat="49.44363" lon="1.09283">
        <ele>18</ele>
        <time>2013-02-18T18:37:25Z</time>
      </trkpt>
      <trkpt lat="49.44378" lon="1.09283">
        <ele>18</ele>
        <time>2013-02-18T18:37:28Z</time>
      </trkpt>
      <trkpt lat="49.4438" lon="1.0926">
        <ele>17</ele>
        <time>2013-02-18T18:37:33Z</time>
      </trkpt>
      <trkpt lat="49.44395" lon="1.09258">
        <ele>18</ele>
        <time>2013-02-18T18:37:40Z</time>
      </trkpt>
      <trkpt lat="49.4441" lon="1.0927">
        <ele>18</ele>
        <time>2013-02-18T18:37:45Z</time>
      </trkpt>
      <trkpt lat="49.44428" lon="1.09285">
        <ele>18</ele>
        <time>2013-02-18T18:37:50Z</time>
      </trkpt>
      <trkpt lat="49.4444" lon="1.09295">
        <ele>18</ele>
        <time>2013-02-18T18:37:56Z</time>
      </trkpt>
      <trkpt lat="49.44453" lon="1.09278">
        <ele>18</ele>
        <time>2013-02-18T18:38:02Z</time>
      </trkpt>
      <trkpt lat="49.4446" lon="1.09258">
        <ele>18</ele>
        <time>2013-02-18T18:38:07Z</time>
      </trkpt>
      <trkpt lat="49.44473" lon="1.09248">
        <ele>19</ele>
        <time>2013-02-18T18:38:33Z</time>
      </trkpt>
      <trkpt lat="49.44488" lon="1.0924">
        <ele>19</ele>
        <time>2013-02-18T18:39:00Z</time>
      </trkpt>
      <trkpt lat="49.44503" lon="1.09238">
        <ele>20</ele>
        <time>2013-02-18T18:39:08Z</time>
      </trkpt>
      <trkpt lat="49.44518" lon="1.09245">
        <ele>21</ele>
        <time>2013-02-18T18:39:15Z</time>
      </trkpt>
      <trkpt lat="49.44533" lon="1.09255">
        <ele>21</ele>
        <time>2013-02-18T18:39:20Z</time>
      </trkpt>
      <trkpt lat="49.44548" lon="1.09263">
        <ele>22</ele>
        <time>2013-02-18T18:39:24Z</time>
      </trkpt>
      <trkpt lat="49.44565" lon="1.09273">
        <ele>23</ele>
        <time>2013-02-18T18:39:30Z</time>
      </trkpt>
      <trkpt lat="49.4458" lon="1.0928">
        <ele>24</ele>
        <time>2013-02-18T18:39:34Z</time>
      </trkpt>
      <trkpt lat="49.44595" lon="1.09293">
        <ele>24</ele>
        <time>2013-02-18T18:39:39Z</time>
      </trkpt>
      <trkpt lat="49.4461" lon="1.09293">
        <ele>25</ele>
        <time>2013-02-18T18:39:44Z</time>
      </trkpt>
      <trkpt lat="49.44633" lon="1.093">
        <ele>27</ele>
        <time>2013-02-18T18:39:51Z</time>
      </trkpt>
      <trkpt lat="49.4465" lon="1.0931">
        <ele>28</ele>
        <time>2013-02-18T18:39:56Z</time>
      </trkpt>
      <trkpt lat="49.44665" lon="1.0932">
        <ele>29</ele>
        <time>2013-02-18T18:40:04Z</time>
      </trkpt>
      <trkpt lat="49.44673" lon="1.09358">
        <ele>29</ele>
        <time>2013-02-18T18:40:21Z</time>
      </trkpt>
      <trkpt lat="49.44688" lon="1.09365">
        <ele>30</ele>
        <time>2013-02-18T18:40:25Z</time>
      </trkpt>
      <trkpt lat="49.44703" lon="1.0937">
        <ele>30</ele>
        <time>2013-02-18T18:40:28Z</time>
      </trkpt>
      <trkpt lat="49.44715" lon="1.0938">
        <ele>31</ele>
        <time>2013-02-18T18:40:33Z</time>
      </trkpt>
      <trkpt lat="49.4473" lon="1.09388">
        <ele>31</ele>
        <time>2013-02-18T18:40:39Z</time>
      </trkpt>
      <trkpt lat="49.4475" lon="1.09395">
        <ele>31</ele>
        <time>2013-02-18T18:40:46Z</time>
      </trkpt>
      <trkpt lat="49.44778" lon="1.09405">
        <ele>32</ele>
        <time>2013-02-18T18:40:54Z</time>
      </trkpt>
      <trkpt lat="49.44795" lon="1.0941">
        <ele>32</ele>
        <time>2013-02-18T18:40:59Z</time>
      </trkpt>
      <trkpt lat="49.44813" lon="1.09418">
        <ele>32</ele>
        <time>2013-02-18T18:41:03Z</time>
      </trkpt>
      <trkpt lat="49.44823" lon="1.09433">
        <ele>32</ele>
        <time>2013-02-18T18:41:06Z</time>
      </trkpt>
      <trkpt lat="49.44835" lon="1.09445">
        <ele>32</ele>
        <time>2013-02-18T18:41:09Z</time>
      </trkpt>
      <trkpt lat="49.4485" lon="1.09453">
        <ele>32</ele>
        <time>2013-02-18T18:41:12Z</time>
      </trkpt>
      <trkpt lat="49.44865" lon="1.09463">
        <ele>32</ele>
        <time>2013-02-18T18:41:16Z</time>
      </trkpt>
      <trkpt lat="49.44865" lon="1.09433">
        <ele>32</ele>
        <time>2013-02-18T18:42:02Z</time>
      </trkpt>
      <trkpt lat="49.44943" lon="1.09315">
        <ele>32</ele>
        <time>2013-02-18T18:42:05Z</time>
      </trkpt>
      <trkpt lat="49.44953" lon="1.093">
        <ele>32</ele>
        <time>2013-02-18T18:42:13Z</time>
      </trkpt>
      <trkpt lat="49.44958" lon="1.0928">
        <ele>33</ele>
        <time>2013-02-18T18:42:17Z</time>
      </trkpt>
      <trkpt lat="49.44958" lon="1.09255">
        <ele>33</ele>
        <time>2013-02-18T18:42:22Z</time>
      </trkpt>
      <trkpt lat="49.4496" lon="1.09233">
        <ele>34</ele>
        <time>2013-02-18T18:42:27Z</time>
      </trkpt>
      <trkpt lat="49.4496" lon="1.0921">
        <ele>36</ele>
        <time>2013-02-18T18:42:45Z</time>
      </trkpt>
      <trkpt lat="49.44958" lon="1.09185">
        <ele>38</ele>
        <time>2013-02-18T18:42:57Z</time>
      </trkpt>
      <trkpt lat="49.44958" lon="1.09163">
        <ele>40</ele>
        <time>2013-02-18T18:43:04Z</time>
      </trkpt>
      <trkpt lat="49.44945" lon="1.09173">
        <ele>39</ele>
        <time>2013-02-18T18:43:30Z</time>
      </trkpt>
      <trkpt lat="49.4493" lon="1.0916">
        <ele>40</ele>
        <time>2013-02-18T18:43:36Z</time>
      </trkpt>
      <trkpt lat="49.44925" lon="1.0914">
        <ele>41</ele>
        <time>2013-02-18T18:43:41Z</time>
      </trkpt>
      <trkpt lat="49.44923" lon="1.09118">
        <ele>42</ele>
        <time>2013-02-18T18:43:47Z</time>
      </trkpt>
      <trkpt lat="49.44918" lon="1.09083">
        <ele>44</ele>
        <time>2013-02-18T18:43:55Z</time>
      </trkpt>
      <trkpt lat="49.44915" lon="1.0906">
        <ele>44</ele>
        <time>2013-02-18T18:43:59Z</time>
      </trkpt>
      <trkpt lat="49.44915" lon="1.09038">
        <ele>44</ele>
        <time>2013-02-18T18:44:04Z</time>
      </trkpt>
      <trkpt lat="49.44913" lon="1.09013">
        <ele>45</ele>
        <time>2013-02-18T18:44:09Z</time>
      </trkpt>
      <trkpt lat="49.4491" lon="1.08983">
        <ele>46</ele>
        <time>2013-02-18T18:44:15Z</time>
      </trkpt>
      <trkpt lat="49.44908" lon="1.08955">
        <ele>46</ele>
        <time>2013-02-18T18:44:21Z</time>
      </trkpt>
      <trkpt lat="49.44905" lon="1.08933">
        <ele>46</ele>
        <time>2013-02-18T18:44:26Z</time>
      </trkpt>
      <trkpt lat="49.44893" lon="1.0892">
        <ele>46</ele>
        <time>2013-02-18T18:44:33Z</time>
      </trkpt>
      <trkpt lat="49.44878" lon="1.08925">
        <ele>44</ele>
        <time>2013-02-18T18:44:36Z</time>
      </trkpt>
      <trkpt lat="49.4479" lon="1.08953">
        <ele>39</ele>
        <time>2013-02-18T18:44:48Z</time>
      </trkpt>
      <trkpt lat="49.44768" lon="1.08958">
        <ele>38</ele>
        <time>2013-02-18T18:44:51Z</time>
      </trkpt>
      <trkpt lat="49.44748" lon="1.08965">
        <ele>37</ele>
        <time>2013-02-18T18:44:54Z</time>
      </trkpt>
      <trkpt lat="49.44728" lon="1.0897">
        <ele>36</ele>
        <time>2013-02-18T18:44:57Z</time>
      </trkpt>
      <trkpt lat="49.44685" lon="1.0898">
        <ele>33</ele>
        <time>2013-02-18T18:45:03Z</time>
      </trkpt>
      <trkpt lat="49.44668" lon="1.0897">
        <ele>31</ele>
        <time>2013-02-18T18:45:06Z</time>
      </trkpt>
      <trkpt lat="49.4466" lon="1.08943">
        <ele>30</ele>
        <time>2013-02-18T18:45:09Z</time>
      </trkpt>
      <trkpt lat="49.4465" lon="1.08898">
        <ele>29</ele>
        <time>2013-02-18T18:45:13Z</time>
      </trkpt>
      <trkpt lat="49.44623" lon="1.08773">
        <ele>25</ele>
        <time>2013-02-18T18:45:25Z</time>
      </trkpt>
      <trkpt lat="49.44618" lon="1.0875">
        <ele>24</ele>
        <time>2013-02-18T18:45:29Z</time>
      </trkpt>
      <trkpt lat="49.4461" lon="1.08728">
        <ele>24</ele>
        <time>2013-02-18T18:45:33Z</time>
      </trkpt>
      <trkpt lat="49.44603" lon="1.08698">
        <ele>23</ele>
        <time>2013-02-18T18:45:36Z</time>
      </trkpt>
      <trkpt lat="49.44598" lon="1.08675">
        <ele>22</ele>
        <time>2013-02-18T18:45:39Z</time>
      </trkpt>
      <trkpt lat="49.44583" lon="1.08673">
        <ele>22</ele>
        <time>2013-02-18T18:45:47Z</time>
      </trkpt>
      <trkpt lat="49.44573" lon="1.08658">
        <ele>21</ele>
        <time>2013-02-18T18:45:55Z</time>
      </trkpt>
      <trkpt lat="49.44558" lon="1.0866">
        <ele>20</ele>
        <time>2013-02-18T18:46:01Z</time>
      </trkpt>
      <trkpt lat="49.44545" lon="1.0867">
        <ele>20</ele>
        <time>2013-02-18T18:46:06Z</time>
      </trkpt>
      <trkpt lat="49.44533" lon="1.0868">
        <ele>19</ele>
        <time>2013-02-18T18:46:11Z</time>
      </trkpt>
      <trkpt lat="49.4452" lon="1.0869">
        <ele>19</ele>
        <time>2013-02-18T18:46:15Z</time>
      </trkpt>
      <trkpt lat="49.44505" lon="1.08698">
        <ele>18</ele>
        <time>2013-02-18T18:46:20Z</time>
      </trkpt>
      <trkpt lat="49.4449" lon="1.08705">
        <ele>17</ele>
        <time>2013-02-18T18:46:25Z</time>
      </trkpt>
      <trkpt lat="49.44475" lon="1.08718">
        <ele>17</ele>
        <time>2013-02-18T18:46:29Z</time>
      </trkpt>
      <trkpt lat="49.44458" lon="1.08733">
        <ele>16</ele>
        <time>2013-02-18T18:46:34Z</time>
      </trkpt>
      <trkpt lat="49.44445" lon="1.08748">
        <ele>15</ele>
        <time>2013-02-18T18:46:38Z</time>
      </trkpt>
      <trkpt lat="49.44433" lon="1.08758">
        <ele>15</ele>
        <time>2013-02-18T18:46:41Z</time>
      </trkpt>
      <trkpt lat="49.44418" lon="1.08775">
        <ele>15</ele>
        <time>2013-02-18T18:46:45Z</time>
      </trkpt>
      <trkpt lat="49.444" lon="1.08788">
        <ele>14</ele>
        <time>2013-02-18T18:46:49Z</time>
      </trkpt>
      <trkpt lat="49.44388" lon="1.08798">
        <ele>14</ele>
        <time>2013-02-18T18:46:52Z</time>
      </trkpt>
      <trkpt lat="49.44375" lon="1.08808">
        <ele>13</ele>
        <time>2013-02-18T18:46:56Z</time>
      </trkpt>
      <trkpt lat="49.44365" lon="1.08823">
        <ele>13</ele>
        <time>2013-02-18T18:47:07Z</time>
      </trkpt>
      <trkpt lat="49.44353" lon="1.08833">
        <ele>13</ele>
        <time>2013-02-18T18:47:12Z</time>
      </trkpt>
      <trkpt lat="49.44338" lon="1.0883">
        <ele>12</ele>
        <time>2013-02-18T18:47:16Z</time>
      </trkpt>
      <trkpt lat="49.4433" lon="1.0881">
        <ele>11</ele>
        <time>2013-02-18T18:47:19Z</time>
      </trkpt>
      <trkpt lat="49.4432" lon="1.08783">
        <ele>11</ele>
        <time>2013-02-18T18:47:23Z</time>
      </trkpt>
      <trkpt lat="49.44315" lon="1.08758">
        <ele>11</ele>
        <time>2013-02-18T18:47:26Z</time>
      </trkpt>
      <trkpt lat="49.44305" lon="1.0874">
        <ele>10</ele>
        <time>2013-02-18T18:47:30Z</time>
      </trkpt>
      <trkpt lat="49.44305" lon="1.08713">
        <ele>10</ele>
        <time>2013-02-18T18:47:36Z</time>
      </trkpt>
      <trkpt lat="49.4431" lon="1.08693">
        <ele>10</ele>
        <time>2013-02-18T18:47:39Z</time>
      </trkpt>
      <trkpt lat="49.44315" lon="1.08673">
        <ele>10</ele>
        <time>2013-02-18T18:47:42Z</time>
      </trkpt>
      <trkpt lat="49.44323" lon="1.08648">
        <ele>10</ele>
        <time>2013-02-18T18:47:46Z</time>
      </trkpt>
      <trkpt lat="49.44328" lon="1.0862">
        <ele>10</ele>
        <time>2013-02-18T18:47:51Z</time>
      </trkpt>
      <trkpt lat="49.44323" lon="1.086">
        <ele>10</ele>
        <time>2013-02-18T18:47:55Z</time>
      </trkpt>
      <trkpt lat="49.44313" lon="1.08585">
        <ele>10</ele>
        <time>2013-02-18T18:47:58Z</time>
      </trkpt>
      <trkpt lat="49.443" lon="1.08575">
        <ele>10</ele>
        <time>2013-02-18T18:48:01Z</time>
      </trkpt>
      <trkpt lat="49.44288" lon="1.08563">
        <ele>9</ele>
        <time>2013-02-18T18:48:04Z</time>
      </trkpt>
      <trkpt lat="49.4426" lon="1.08538">
        <ele>9</ele>
        <time>2013-02-18T18:48:12Z</time>
      </trkpt>
      <trkpt lat="49.44248" lon="1.0855">
        <ele>8</ele>
        <time>2013-02-18T18:48:20Z</time>
      </trkpt>
      <trkpt lat="49.44235" lon="1.08568">
        <ele>8</ele>
        <time>2013-02-18T18:48:24Z</time>
      </trkpt>
      <trkpt lat="49.44225" lon="1.08585">
        <ele>8</ele>
        <time>2013-02-18T18:48:28Z</time>
      </trkpt>
      <trkpt lat="49.4421" lon="1.08598">
        <ele>8</ele>
        <time>2013-02-18T18:48:32Z</time>
      </trkpt>
      <trkpt lat="49.44208" lon="1.0862">
        <ele>8</ele>
        <time>2013-02-18T18:48:38Z</time>
      </trkpt>
      <trkpt lat="49.4422" lon="1.08638">
        <ele>8</ele>
        <time>2013-02-18T18:48:43Z</time>
      </trkpt>
      <trkpt lat="49.44233" lon="1.08653">
        <ele>8</ele>
        <time>2013-02-18T18:48:50Z</time>
      </trkpt>
      <trkpt lat="49.4425" lon="1.08675">
        <ele>9</ele>
        <time>2013-02-18T18:48:56Z</time>
      </trkpt>
      <trkpt lat="49.44263" lon="1.08688">
        <ele>9</ele>
        <time>2013-02-18T18:49:00Z</time>
      </trkpt>
      <trkpt lat="49.44275" lon="1.087">
        <ele>9</ele>
        <time>2013-02-18T18:49:04Z</time>
      </trkpt>
      <trkpt lat="49.44288" lon="1.08713">
        <ele>9</ele>
        <time>2013-02-18T18:49:08Z</time>
      </trkpt>
      <trkpt lat="49.443" lon="1.08725">
        <ele>10</ele>
        <time>2013-02-18T18:49:12Z</time>
      </trkpt>
      <trkpt lat="49.44303" lon="1.08748">
        <ele>10</ele>
        <time>2013-02-18T18:49:15Z</time>
      </trkpt>
      <trkpt lat="49.44295" lon="1.08765">
        <ele>10</ele>
        <time>2013-02-18T18:49:18Z</time>
      </trkpt>
      <trkpt lat="49.4429" lon="1.08785">
        <ele>10</ele>
        <time>2013-02-18T18:49:22Z</time>
      </trkpt>
      <trkpt lat="49.44288" lon="1.0881">
        <ele>10</ele>
        <time>2013-02-18T18:49:26Z</time>
      </trkpt>
      <trkpt lat="49.44285" lon="1.08833">
        <ele>10</ele>
        <time>2013-02-18T18:49:30Z</time>
      </trkpt>
      <trkpt lat="49.44278" lon="1.0885">
        <ele>10</ele>
        <time>2013-02-18T18:49:33Z</time>
      </trkpt>
      <trkpt lat="49.44268" lon="1.08865">
        <ele>10</ele>
        <time>2013-02-18T18:49:37Z</time>
      </trkpt>
      <trkpt lat="49.44253" lon="1.08865">
        <ele>10</ele>
        <time>2013-02-18T18:49:41Z</time>
      </trkpt>
      <trkpt lat="49.44235" lon="1.08858">
        <ele>9</ele>
        <time>2013-02-18T18:49:44Z</time>
      </trkpt>
      <trkpt lat="49.4422" lon="1.08855">
        <ele>9</ele>
        <time>2013-02-18T18:49:48Z</time>
      </trkpt>
      <trkpt lat="49.44205" lon="1.08855">
        <ele>9</ele>
        <time>2013-02-18T18:49:51Z</time>
      </trkpt>
      <trkpt lat="49.4419" lon="1.08865">
        <ele>9</ele>
        <time>2013-02-18T18:49:55Z</time>
      </trkpt>
      <trkpt lat="49.44175" lon="1.08873">
        <ele>9</ele>
        <time>2013-02-18T18:49:58Z</time>
      </trkpt>
      <trkpt lat="49.44168" lon="1.08895">
        <ele>9</ele>
        <time>2013-02-18T18:50:02Z</time>
      </trkpt>
      <trkpt lat="49.44153" lon="1.08893">
        <ele>9</ele>
        <time>2013-02-18T18:50:10Z</time>
      </trkpt>
      <trkpt lat="49.4414" lon="1.0891">
        <ele>9</ele>
        <time>2013-02-18T18:50:15Z</time>
      </trkpt>
      <trkpt lat="49.44133" lon="1.08928">
        <ele>9</ele>
        <time>2013-02-18T18:50:18Z</time>
      </trkpt>
      <trkpt lat="49.44128" lon="1.08948">
        <ele>10</ele>
        <time>2013-02-18T18:50:24Z</time>
      </trkpt>
      <trkpt lat="49.4412" lon="1.08968">
        <ele>10</ele>
        <time>2013-02-18T18:50:30Z</time>
      </trkpt>
      <trkpt lat="49.44125" lon="1.0899">
        <ele>11</ele>
        <time>2013-02-18T18:50:39Z</time>
      </trkpt>
      <trkpt lat="49.44138" lon="1.09003">
        <ele>12</ele>
        <time>2013-02-18T18:50:46Z</time>
      </trkpt>
      <trkpt lat="49.44153" lon="1.09013">
        <ele>12</ele>
        <time>2013-02-18T18:50:53Z</time>
      </trkpt>
      <trkpt lat="49.4417" lon="1.0902">
        <ele>12</ele>
        <time>2013-02-18T18:50:59Z</time>
      </trkpt>
      <trkpt lat="49.44185" lon="1.0903">
        <ele>13</ele>
        <time>2013-02-18T18:51:04Z</time>
      </trkpt>
      <trkpt lat="49.4419" lon="1.0905">
        <ele>13</ele>
        <time>2013-02-18T18:51:09Z</time>
      </trkpt>
      <trkpt lat="49.44178" lon="1.09065">
        <ele>14</ele>
        <time>2013-02-18T18:51:14Z</time>
      </trkpt>
      <trkpt lat="49.44173" lon="1.09088">
        <ele>15</ele>
        <time>2013-02-18T18:51:20Z</time>
      </trkpt>
      <trkpt lat="49.44165" lon="1.09105">
        <ele>15</ele>
        <time>2013-02-18T18:51:27Z</time>
      </trkpt>
      <trkpt lat="49.44158" lon="1.09123">
        <ele>15</ele>
        <time>2013-02-18T18:51:31Z</time>
      </trkpt>
      <trkpt lat="49.4415" lon="1.09153">
        <ele>16</ele>
        <time>2013-02-18T18:51:39Z</time>
      </trkpt>
      <trkpt lat="49.44145" lon="1.09173">
        <ele>16</ele>
        <time>2013-02-18T18:51:43Z</time>
      </trkpt>
      <trkpt lat="49.4414" lon="1.09193">
        <ele>16</ele>
        <time>2013-02-18T18:51:49Z</time>
      </trkpt>
      <trkpt lat="49.44133" lon="1.09218">
        <ele>16</ele>
        <time>2013-02-18T18:51:53Z</time>
      </trkpt>
      <trkpt lat="49.44125" lon="1.09238">
        <ele>16</ele>
        <time>2013-02-18T18:51:57Z</time>
      </trkpt>
      <trkpt lat="49.44118" lon="1.09258">
        <ele>16</ele>
        <time>2013-02-18T18:52:00Z</time>
      </trkpt>
      <trkpt lat="49.44115" lon="1.0928">
        <ele>16</ele>
        <time>2013-02-18T18:52:04Z</time>
      </trkpt>
      <trkpt lat="49.44103" lon="1.0929">
        <ele>16</ele>
        <time>2013-02-18T18:52:10Z</time>
      </trkpt>
      <trkpt lat="49.4409" lon="1.09275">
        <ele>15</ele>
        <time>2013-02-18T18:52:15Z</time>
      </trkpt>
      <trkpt lat="49.44073" lon="1.09263">
        <ele>15</ele>
        <time>2013-02-18T18:52:18Z</time>
      </trkpt>
      <trkpt lat="49.44055" lon="1.0925">
        <ele>14</ele>
        <time>2013-02-18T18:52:22Z</time>
      </trkpt>
      <trkpt lat="49.44043" lon="1.0924">
        <ele>14</ele>
        <time>2013-02-18T18:52:25Z</time>
      </trkpt>
      <trkpt lat="49.44028" lon="1.0923">
        <ele>13</ele>
        <time>2013-02-18T18:52:28Z</time>
      </trkpt>
      <trkpt lat="49.44015" lon="1.09218">
        <ele>13</ele>
        <time>2013-02-18T18:52:32Z</time>
      </trkpt>
      <trkpt lat="49.44003" lon="1.092">
        <ele>12</ele>
        <time>2013-02-18T18:52:36Z</time>
      </trkpt>
      <trkpt lat="49.44" lon="1.09175">
        <ele>12</ele>
        <time>2013-02-18T18:52:39Z</time>
      </trkpt>
      <trkpt lat="49.43995" lon="1.09153">
        <ele>11</ele>
        <time>2013-02-18T18:52:47Z</time>
      </trkpt>
      <trkpt lat="49.43995" lon="1.09128">
        <ele>11</ele>
        <time>2013-02-18T18:52:52Z</time>
      </trkpt>
      <trkpt lat="49.43998" lon="1.091">
        <ele>11</ele>
        <time>2013-02-18T18:52:56Z</time>
      </trkpt>
      <trkpt lat="49.43998" lon="1.09078">
        <ele>11</ele>
        <time>2013-02-18T18:52:59Z</time>
      </trkpt>
      <trkpt lat="49.44003" lon="1.09058">
        <ele>10</ele>
        <time>2013-02-18T18:53:02Z</time>
      </trkpt>
      <trkpt lat="49.44008" lon="1.09033">
        <ele>10</ele>
        <time>2013-02-18T18:53:06Z</time>
      </trkpt>
      <trkpt lat="49.4401" lon="1.09008">
        <ele>9</ele>
        <time>2013-02-18T18:53:10Z</time>
      </trkpt>
      <trkpt lat="49.44015" lon="1.08983">
        <ele>8</ele>
        <time>2013-02-18T18:53:14Z</time>
      </trkpt>
      <trkpt lat="49.4402" lon="1.0896">
        <ele>8</ele>
        <time>2013-02-18T18:53:18Z</time>
      </trkpt>
      <trkpt lat="49.44013" lon="1.08943">
        <ele>8</ele>
        <time>2013-02-18T18:53:22Z</time>
      </trkpt>
      <trkpt lat="49.44025" lon="1.08923">
        <ele>8</ele>
        <time>2013-02-18T18:53:43Z</time>
      </trkpt>
      <trkpt lat="49.44033" lon="1.08903">
        <ele>8</ele>
        <time>2013-02-18T18:53:46Z</time>
      </trkpt>
      <trkpt lat="49.4404" lon="1.08878">
        <ele>7</ele>
        <time>2013-02-18T18:53:50Z</time>
      </trkpt>
      <trkpt lat="49.44038" lon="1.08855">
        <ele>7</ele>
        <time>2013-02-18T18:53:53Z</time>
      </trkpt>
      <trkpt lat="49.4403" lon="1.08838">
        <ele>7</ele>
        <time>2013-02-18T18:53:56Z</time>
      </trkpt>
      <trkpt lat="49.44025" lon="1.08815">
        <ele>7</ele>
        <time>2013-02-18T18:53:59Z</time>
      </trkpt>
      <trkpt lat="49.4403" lon="1.08788">
        <ele>7</ele>
        <time>2013-02-18T18:54:03Z</time>
      </trkpt>
      <trkpt lat="49.44035" lon="1.08763">
        <ele>7</ele>
        <time>2013-02-18T18:54:07Z</time>
      </trkpt>
      <trkpt lat="49.4404" lon="1.0874">
        <ele>6</ele>
        <time>2013-02-18T18:54:11Z</time>
      </trkpt>
      <trkpt lat="49.44048" lon="1.08708">
        <ele>6</ele>
        <time>2013-02-18T18:54:17Z</time>
      </trkpt>
      <trkpt lat="49.44055" lon="1.08683">
        <ele>6</ele>
        <time>2013-02-18T18:54:20Z</time>
      </trkpt>
      <trkpt lat="49.4406" lon="1.08655">
        <ele>6</ele>
        <time>2013-02-18T18:54:25Z</time>
      </trkpt>
      <trkpt lat="49.44075" lon="1.08665">
        <ele>7</ele>
        <time>2013-02-18T18:54:31Z</time>
      </trkpt>
      <trkpt lat="49.44098" lon="1.0868">
        <ele>7</ele>
        <time>2013-02-18T18:54:36Z</time>
      </trkpt>
      <trkpt lat="49.4412" lon="1.08695">
        <ele>7</ele>
        <time>2013-02-18T18:54:42Z</time>
      </trkpt>
      <trkpt lat="49.44135" lon="1.087">
        <ele>7</ele>
        <time>2013-02-18T18:54:46Z</time>
      </trkpt>
      <trkpt lat="49.4415" lon="1.08693">
        <ele>7</ele>
        <time>2013-02-18T18:54:51Z</time>
      </trkpt>
      <trkpt lat="49.4416" lon="1.08673">
        <ele>7</ele>
        <time>2013-02-18T18:54:55Z</time>
      </trkpt>
      <trkpt lat="49.4418" lon="1.08633">
        <ele>7</ele>
        <time>2013-02-18T18:55:03Z</time>
      </trkpt>
      <trkpt lat="49.4419" lon="1.08613">
        <ele>7</ele>
        <time>2013-02-18T18:55:08Z</time>
      </trkpt>
      <trkpt lat="49.44198" lon="1.0859">
        <ele>8</ele>
        <time>2013-02-18T18:55:12Z</time>
      </trkpt>
      <trkpt lat="49.44208" lon="1.08573">
        <ele>8</ele>
        <time>2013-02-18T18:55:15Z</time>
      </trkpt>
      <trkpt lat="49.4422" lon="1.08548">
        <ele>8</ele>
        <time>2013-02-18T18:55:20Z</time>
      </trkpt>
      <trkpt lat="49.44228" lon="1.0853">
        <ele>8</ele>
        <time>2013-02-18T18:55:32Z</time>
      </trkpt>
      <trkpt lat="49.44238" lon="1.08513">
        <ele>8</ele>
        <time>2013-02-18T18:55:37Z</time>
      </trkpt>
      <trkpt lat="49.44248" lon="1.08495">
        <ele>8</ele>
        <time>2013-02-18T18:55:42Z</time>
      </trkpt>
      <trkpt lat="49.4426" lon="1.08483">
        <ele>9</ele>
        <time>2013-02-18T18:55:46Z</time>
      </trkpt>
      <trkpt lat="49.4427" lon="1.08463">
        <ele>9</ele>
        <time>2013-02-18T18:55:52Z</time>
      </trkpt>
      <trkpt lat="49.44285" lon="1.08463">
        <ele>9</ele>
        <time>2013-02-18T18:55:58Z</time>
      </trkpt>
      <trkpt lat="49.443" lon="1.08468">
        <ele>9</ele>
        <time>2013-02-18T18:56:05Z</time>
      </trkpt>
      <trkpt lat="49.44315" lon="1.08475">
        <ele>10</ele>
        <time>2013-02-18T18:56:12Z</time>
      </trkpt>
      <trkpt lat="49.4433" lon="1.0848">
        <ele>10</ele>
        <time>2013-02-18T18:56:17Z</time>
      </trkpt>
      <trkpt lat="49.44348" lon="1.08483">
        <ele>11</ele>
        <time>2013-02-18T18:56:22Z</time>
      </trkpt>
      <trkpt lat="49.44363" lon="1.08488">
        <ele>11</ele>
        <time>2013-02-18T18:56:29Z</time>
      </trkpt>
      <trkpt lat="49.44378" lon="1.08495">
        <ele>11</ele>
        <time>2013-02-18T18:56:34Z</time>
      </trkpt>
      <trkpt lat="49.44393" lon="1.08508">
        <ele>12</ele>
        <time>2013-02-18T18:56:39Z</time>
      </trkpt>
      <trkpt lat="49.44405" lon="1.08518">
        <ele>12</ele>
        <time>2013-02-18T18:56:43Z</time>
      </trkpt>
      <trkpt lat="49.4442" lon="1.08518">
        <ele>12</ele>
        <time>2013-02-18T18:56:51Z</time>
      </trkpt>
      <trkpt lat="49.4443" lon="1.08503">
        <ele>13</ele>
        <time>2013-02-18T18:56:56Z</time>
      </trkpt>
      <trkpt lat="49.44435" lon="1.0848">
        <ele>13</ele>
        <time>2013-02-18T18:57:01Z</time>
      </trkpt>
      <trkpt lat="49.44443" lon="1.0846">
        <ele>12</ele>
        <time>2013-02-18T18:57:05Z</time>
      </trkpt>
      <trkpt lat="49.44455" lon="1.08435">
        <ele>13</ele>
        <time>2013-02-18T18:57:09Z</time>
      </trkpt>
      <trkpt lat="49.44463" lon="1.0841">
        <ele>12</ele>
        <time>2013-02-18T18:57:13Z</time>
      </trkpt>
      <trkpt lat="49.4447" lon="1.08393">
        <ele>12</ele>
        <time>2013-02-18T18:57:16Z</time>
      </trkpt>
      <trkpt lat="49.44483" lon="1.08363">
        <ele>12</ele>
        <time>2013-02-18T18:57:21Z</time>
      </trkpt>
      <trkpt lat="49.44523" lon="1.08278">
        <ele>12</ele>
        <time>2013-02-18T18:57:34Z</time>
      </trkpt>
      <trkpt lat="49.44533" lon="1.0825">
        <ele>11</ele>
        <time>2013-02-18T18:57:38Z</time>
      </trkpt>
      <trkpt lat="49.44545" lon="1.0822">
        <ele>12</ele>
        <time>2013-02-18T18:57:43Z</time>
      </trkpt>
      <trkpt lat="49.44543" lon="1.08193">
        <ele>11</ele>
        <time>2013-02-18T18:57:47Z</time>
      </trkpt>
      <trkpt lat="49.44535" lon="1.08175">
        <ele>10</ele>
        <time>2013-02-18T18:57:50Z</time>
      </trkpt>
      <trkpt lat="49.4452" lon="1.0816">
        <ele>10</ele>
        <time>2013-02-18T18:57:54Z</time>
      </trkpt>
      <trkpt lat="49.44505" lon="1.08158">
        <ele>10</ele>
        <time>2013-02-18T18:58:00Z</time>
      </trkpt>
      <trkpt lat="49.4449" lon="1.0815">
        <ele>9</ele>
        <time>2013-02-18T18:58:05Z</time>
      </trkpt>
      <trkpt lat="49.44498" lon="1.08128">
        <ele>9</ele>
        <time>2013-02-18T18:58:09Z</time>
      </trkpt>
      <trkpt lat="49.44505" lon="1.08108">
        <ele>9</ele>
        <time>2013-02-18T18:58:12Z</time>
      </trkpt>
      <trkpt lat="49.4452" lon="1.08075">
        <ele>9</ele>
        <time>2013-02-18T18:58:17Z</time>
      </trkpt>
      <trkpt lat="49.44528" lon="1.08055">
        <ele>9</ele>
        <time>2013-02-18T18:58:21Z</time>
      </trkpt>
      <trkpt lat="49.4454" lon="1.0804">
        <ele>9</ele>
        <time>2013-02-18T18:58:25Z</time>
      </trkpt>
      <trkpt lat="49.4455" lon="1.0802">
        <ele>9</ele>
        <time>2013-02-18T18:58:29Z</time>
      </trkpt>
      <trkpt lat="49.44565" lon="1.08">
        <ele>9</ele>
        <time>2013-02-18T18:58:35Z</time>
      </trkpt>
      <trkpt lat="49.4456" lon="1.0798">
        <ele>8</ele>
        <time>2013-02-18T18:58:39Z</time>
      </trkpt>
      <trkpt lat="49.44545" lon="1.0797">
        <ele>8</ele>
        <time>2013-02-18T18:58:43Z</time>
      </trkpt>
      <trkpt lat="49.44533" lon="1.07958">
        <ele>7</ele>
        <time>2013-02-18T18:58:46Z</time>
      </trkpt>
      <trkpt lat="49.4452" lon="1.07948">
        <ele>7</ele>
        <time>2013-02-18T18:58:49Z</time>
      </trkpt>
      <trkpt lat="49.44508" lon="1.07935">
        <ele>7</ele>
        <time>2013-02-18T18:58:53Z</time>
      </trkpt>
      <trkpt lat="49.4447" lon="1.079">
        <ele>7</ele>
        <time>2013-02-18T18:59:02Z</time>
      </trkpt>
      <trkpt lat="49.44455" lon="1.07885">
        <ele>6</ele>
        <time>2013-02-18T18:59:08Z</time>
      </trkpt>
      <trkpt lat="49.44443" lon="1.07875">
        <ele>6</ele>
        <time>2013-02-18T18:59:12Z</time>
      </trkpt>
      <trkpt lat="49.44428" lon="1.0786">
        <ele>6</ele>
        <time>2013-02-18T18:59:18Z</time>
      </trkpt>
      <trkpt lat="49.44368" lon="1.07803">
        <ele>7</ele>
        <time>2013-02-18T18:59:36Z</time>
      </trkpt>
      <trkpt lat="49.44348" lon="1.07785">
        <ele>7</ele>
        <time>2013-02-18T18:59:43Z</time>
      </trkpt>
      <trkpt lat="49.44335" lon="1.07773">
        <ele>7</ele>
        <time>2013-02-18T18:59:48Z</time>
      </trkpt>
      <trkpt lat="49.44338" lon="1.0775">
        <ele>7</ele>
        <time>2013-02-18T18:59:54Z</time>
      </trkpt>
      <trkpt lat="49.44338" lon="1.07728">
        <ele>7</ele>
        <time>2013-02-18T19:00:19Z</time>
      </trkpt>
      <trkpt lat="49.44345" lon="1.0771">
        <ele>7</ele>
        <time>2013-02-18T19:00:26Z</time>
      </trkpt>
      <trkpt lat="49.4433" lon="1.07703">
        <ele>7</ele>
        <time>2013-02-18T19:00:36Z</time>
      </trkpt>
      <trkpt lat="49.44333" lon="1.0768">
        <ele>7</ele>
        <time>2013-02-18T19:00:41Z</time>
      </trkpt>
      <trkpt lat="49.4434" lon="1.0766">
        <ele>7</ele>
        <time>2013-02-18T19:00:46Z</time>
      </trkpt>
      <trkpt lat="49.4435" lon="1.07643">
        <ele>7</ele>
        <time>2013-02-18T19:00:51Z</time>
      </trkpt>
      <trkpt lat="49.44363" lon="1.07618">
        <ele>7</ele>
        <time>2013-02-18T19:01:04Z</time>
      </trkpt>
      <trkpt lat="49.4438" lon="1.07603">
        <ele>7</ele>
        <time>2013-02-18T19:01:11Z</time>
      </trkpt>
      <trkpt lat="49.44388" lon="1.07585">
        <ele>7</ele>
        <time>2013-02-18T19:01:14Z</time>
      </trkpt>
      <trkpt lat="49.44395" lon="1.07568">
        <ele>7</ele>
        <time>2013-02-18T19:01:18Z</time>
      </trkpt>
      <trkpt lat="49.44405" lon="1.0755">
        <ele>7</ele>
        <time>2013-02-18T19:01:26Z</time>
      </trkpt>
      <trkpt lat="49.44403" lon="1.07528">
        <ele>7</ele>
        <time>2013-02-18T19:01:38Z</time>
      </trkpt>
      <trkpt lat="49.44393" lon="1.07513">
        <ele>7</ele>
        <time>2013-02-18T19:01:43Z</time>
      </trkpt>
      <trkpt lat="49.44388" lon="1.07493">
        <ele>7</ele>
        <time>2013-02-18T19:01:47Z</time>
      </trkpt>
      <trkpt lat="49.44388" lon="1.0747">
        <ele>7</ele>
        <time>2013-02-18T19:01:51Z</time>
      </trkpt>
      <trkpt lat="49.4439" lon="1.07448">
        <ele>7</ele>
        <time>2013-02-18T19:01:54Z</time>
      </trkpt>
      <trkpt lat="49.44393" lon="1.07423">
        <ele>7</ele>
        <time>2013-02-18T19:01:57Z</time>
      </trkpt>
      <trkpt lat="49.44398" lon="1.074">
        <ele>6</ele>
        <time>2013-02-18T19:02:00Z</time>
      </trkpt>
      <trkpt lat="49.44405" lon="1.07363">
        <ele>6</ele>
        <time>2013-02-18T19:02:05Z</time>
      </trkpt>
      <trkpt lat="49.44408" lon="1.07335">
        <ele>6</ele>
        <time>2013-02-18T19:02:09Z</time>
      </trkpt>
      <trkpt lat="49.44413" lon="1.07315">
        <ele>6</ele>
        <time>2013-02-18T19:02:12Z</time>
      </trkpt>
      <trkpt lat="49.44415" lon="1.0729">
        <ele>6</ele>
        <time>2013-02-18T19:02:16Z</time>
      </trkpt>
      <trkpt lat="49.44415" lon="1.07258">
        <ele>6</ele>
        <time>2013-02-18T19:02:21Z</time>
      </trkpt>
      <trkpt lat="49.44418" lon="1.07233">
        <ele>6</ele>
        <time>2013-02-18T19:02:25Z</time>
      </trkpt>
      <trkpt lat="49.4443" lon="1.07223">
        <ele>6</ele>
        <time>2013-02-18T19:02:28Z</time>
      </trkpt>
      <trkpt lat="49.44448" lon="1.07233">
        <ele>6</ele>
        <time>2013-02-18T19:02:32Z</time>
      </trkpt>
      <trkpt lat="49.4449" lon="1.07255">
        <ele>7</ele>
        <time>2013-02-18T19:02:41Z</time>
      </trkpt>
      <trkpt lat="49.44518" lon="1.0727">
        <ele>7</ele>
        <time>2013-02-18T19:02:48Z</time>
      </trkpt>
      <trkpt lat="49.4453" lon="1.07258">
        <ele>7</ele>
        <time>2013-02-18T19:02:52Z</time>
      </trkpt>
      <trkpt lat="49.44548" lon="1.07248">
        <ele>7</ele>
        <time>2013-02-18T19:03:09Z</time>
      </trkpt>
      <trkpt lat="49.44558" lon="1.07233">
        <ele>8</ele>
        <time>2013-02-18T19:03:13Z</time>
      </trkpt>
      <trkpt lat="49.44565" lon="1.07213">
        <ele>7</ele>
        <time>2013-02-18T19:03:18Z</time>
      </trkpt>
      <trkpt lat="49.44573" lon="1.07195">
        <ele>7</ele>
        <time>2013-02-18T19:03:22Z</time>
      </trkpt>
      <trkpt lat="49.4461" lon="1.0712">
        <ele>8</ele>
        <time>2013-02-18T19:03:39Z</time>
      </trkpt>
      <trkpt lat="49.4463" lon="1.0708">
        <ele>8</ele>
        <time>2013-02-18T19:03:47Z</time>
      </trkpt>
      <trkpt lat="49.44643" lon="1.07068">
        <ele>8</ele>
        <time>2013-02-18T19:03:50Z</time>
      </trkpt>
      <trkpt lat="49.4465" lon="1.07048">
        <ele>8</ele>
        <time>2013-02-18T19:03:53Z</time>
      </trkpt>
      <trkpt lat="49.4466" lon="1.07028">
        <ele>8</ele>
        <time>2013-02-18T19:03:56Z</time>
      </trkpt>
      <trkpt lat="49.4467" lon="1.07008">
        <ele>8</ele>
        <time>2013-02-18T19:03:59Z</time>
      </trkpt>
      <trkpt lat="49.4468" lon="1.06983">
        <ele>8</ele>
        <time>2013-02-18T19:04:02Z</time>
      </trkpt>
      <trkpt lat="49.44693" lon="1.06953">
        <ele>8</ele>
        <time>2013-02-18T19:04:06Z</time>
      </trkpt>
      <trkpt lat="49.44703" lon="1.06933">
        <ele>8</ele>
        <time>2013-02-18T19:04:09Z</time>
      </trkpt>
      <trkpt lat="49.44725" lon="1.06885">
        <ele>8</ele>
        <time>2013-02-18T19:04:15Z</time>
      </trkpt>
      <trkpt lat="49.44733" lon="1.06865">
        <ele>8</ele>
        <time>2013-02-18T19:04:18Z</time>
      </trkpt>
      <trkpt lat="49.44745" lon="1.06833">
        <ele>8</ele>
        <time>2013-02-18T19:04:22Z</time>
      </trkpt>
      <trkpt lat="49.44765" lon="1.06793">
        <ele>8</ele>
        <time>2013-02-18T19:04:28Z</time>
      </trkpt>
      <trkpt lat="49.44775" lon="1.06765">
        <ele>7</ele>
        <time>2013-02-18T19:04:32Z</time>
      </trkpt>
      <trkpt lat="49.44785" lon="1.06748">
        <ele>7</ele>
        <time>2013-02-18T19:04:35Z</time>
      </trkpt>
      <trkpt lat="49.44793" lon="1.0673">
        <ele>7</ele>
        <time>2013-02-18T19:04:38Z</time>
      </trkpt>
      <trkpt lat="49.44803" lon="1.06708">
        <ele>7</ele>
        <time>2013-02-18T19:04:42Z</time>
      </trkpt>
      <trkpt lat="49.4481" lon="1.0669">
        <ele>7</ele>
        <time>2013-02-18T19:04:47Z</time>
      </trkpt>
      <trkpt lat="49.4482" lon="1.06653">
        <ele>7</ele>
        <time>2013-02-18T19:05:36Z</time>
      </trkpt>
      <trkpt lat="49.4483" lon="1.06635">
        <ele>7</ele>
        <time>2013-02-18T19:05:39Z</time>
      </trkpt>
      <trkpt lat="49.4484" lon="1.06613">
        <ele>7</ele>
        <time>2013-02-18T19:05:42Z</time>
      </trkpt>
      <trkpt lat="49.44848" lon="1.06593">
        <ele>7</ele>
        <time>2013-02-18T19:05:45Z</time>
      </trkpt>
      <trkpt lat="49.44853" lon="1.06573">
        <ele>7</ele>
        <time>2013-02-18T19:05:48Z</time>
      </trkpt>
      <trkpt lat="49.4486" lon="1.06543">
        <ele>7</ele>
        <time>2013-02-18T19:05:53Z</time>
      </trkpt>
      <trkpt lat="49.44865" lon="1.0652">
        <ele>7</ele>
        <time>2013-02-18T19:05:57Z</time>
      </trkpt>
      <trkpt lat="49.44868" lon="1.06495">
        <ele>7</ele>
        <time>2013-02-18T19:06:01Z</time>
      </trkpt>
      <trkpt lat="49.4487" lon="1.0647">
        <ele>7</ele>
        <time>2013-02-18T19:06:05Z</time>
      </trkpt>
      <trkpt lat="49.44873" lon="1.06448">
        <ele>7</ele>
        <time>2013-02-18T19:06:09Z</time>
      </trkpt>
      <trkpt lat="49.4486" lon="1.06435">
        <ele>7</ele>
        <time>2013-02-18T19:06:13Z</time>
      </trkpt>
      <trkpt lat="49.44845" lon="1.06435">
        <ele>7</ele>
        <time>2013-02-18T19:06:17Z</time>
      </trkpt>
      <trkpt lat="49.44828" lon="1.0644">
        <ele>6</ele>
        <time>2013-02-18T19:06:21Z</time>
      </trkpt>
      <trkpt lat="49.4481" lon="1.06443">
        <ele>7</ele>
        <time>2013-02-18T19:06:25Z</time>
      </trkpt>
      <trkpt lat="49.44793" lon="1.06445">
        <ele>7</ele>
        <time>2013-02-18T19:06:30Z</time>
      </trkpt>
      <trkpt lat="49.44778" lon="1.06453">
        <ele>7</ele>
        <time>2013-02-18T19:06:36Z</time>
      </trkpt>
      <trkpt lat="49.44765" lon="1.0644">
        <ele>7</ele>
        <time>2013-02-18T19:07:12Z</time>
      </trkpt>
      <trkpt lat="49.4476" lon="1.0642">
        <ele>7</ele>
        <time>2013-02-18T19:07:54Z</time>
      </trkpt>
      <trkpt lat="49.4475" lon="1.06405">
        <ele>7</ele>
        <time>2013-02-18T19:08:23Z</time>
      </trkpt>
      <trkpt lat="49.44735" lon="1.06405">
        <ele>7</ele>
        <time>2013-02-18T19:08:41Z</time>
      </trkpt>
      <trkpt lat="49.4472" lon="1.06405">
        <ele>7</ele>
        <time>2013-02-18T19:09:13Z</time>
      </trkpt>
      <trkpt lat="49.44705" lon="1.06395">
        <ele>8</ele>
        <time>2013-02-18T19:09:31Z</time>
      </trkpt>
      <trkpt lat="49.4469" lon="1.06393">
        <ele>8</ele>
        <time>2013-02-18T19:09:36Z</time>
      </trkpt>
      <trkpt lat="49.44675" lon="1.06388">
        <ele>8</ele>
        <time>2013-02-18T19:09:40Z</time>
      </trkpt>
      <trkpt lat="49.4466" lon="1.06378">
        <ele>7</ele>
        <time>2013-02-18T19:09:45Z</time>
      </trkpt>
      <trkpt lat="49.44655" lon="1.06358">
        <ele>7</ele>
        <time>2013-02-18T19:09:54Z</time>
      </trkpt>
      <trkpt lat="49.44655" lon="1.06335">
        <ele>7</ele>
        <time>2013-02-18T19:10:04Z</time>
      </trkpt>
      <trkpt lat="49.4464" lon="1.06325">
        <ele>6</ele>
        <time>2013-02-18T19:10:15Z</time>
      </trkpt>
      <trkpt lat="49.44633" lon="1.06308">
        <ele>6</ele>
        <time>2013-02-18T19:10:19Z</time>
      </trkpt>
      <trkpt lat="49.44623" lon="1.06293">
        <ele>6</ele>
        <time>2013-02-18T19:10:25Z</time>
      </trkpt>
      <trkpt lat="49.44638" lon="1.06293">
        <ele>6</ele>
        <time>2013-02-18T19:10:42Z</time>
      </trkpt>
      <trkpt lat="49.44653" lon="1.06298">
        <ele>6</ele>
        <time>2013-02-18T19:10:59Z</time>
      </trkpt>
      <trkpt lat="49.44668" lon="1.0629">
        <ele>6</ele>
        <time>2013-02-18T19:11:10Z</time>
      </trkpt>
      <trkpt lat="49.44683" lon="1.0628">
        <ele>7</ele>
        <time>2013-02-18T19:11:16Z</time>
      </trkpt>
      <trkpt lat="49.44698" lon="1.06275">
        <ele>7</ele>
        <time>2013-02-18T19:11:27Z</time>
      </trkpt>
      <trkpt lat="49.4471" lon="1.06288">
        <ele>7</ele>
        <time>2013-02-18T19:11:36Z</time>
      </trkpt>
      <trkpt lat="49.4472" lon="1.0631">
        <ele>7</ele>
        <time>2013-02-18T19:11:40Z</time>
      </trkpt>
      <trkpt lat="49.44725" lon="1.0633">
        <ele>7</ele>
        <time>2013-02-18T19:11:43Z</time>
      </trkpt>
      <trkpt lat="49.4473" lon="1.06353">
        <ele>7</ele>
        <time>2013-02-18T19:11:47Z</time>
      </trkpt>
      <trkpt lat="49.44735" lon="1.06373">
        <ele>7</ele>
        <time>2013-02-18T19:11:51Z</time>
      </trkpt>
      <trkpt lat="49.44733" lon="1.06395">
        <ele>7</ele>
        <time>2013-02-18T19:11:57Z</time>
      </trkpt>
      <trkpt lat="49.44725" lon="1.06415">
        <ele>7</ele>
        <time>2013-02-18T19:12:02Z</time>
      </trkpt>
      <trkpt lat="49.44718" lon="1.06433">
        <ele>8</ele>
        <time>2013-02-18T19:12:10Z</time>
      </trkpt>
      <trkpt lat="49.44705" lon="1.06445">
        <ele>8</ele>
        <time>2013-02-18T19:12:17Z</time>
      </trkpt>
      <trkpt lat="49.44725" lon="1.0636">
        <ele>7</ele>
        <time>2013-02-18T19:13:50Z</time>
      </trkpt>
      <trkpt lat="49.4468" lon="1.0637">
        <ele>7</ele>
        <time>2013-02-18T19:13:53Z</time>
      </trkpt>
      <trkpt lat="49.44673" lon="1.0639">
        <ele>8</ele>
        <time>2013-02-18T19:14:00Z</time>
      </trkpt>
      <trkpt lat="49.44653" lon="1.0637">
        <ele>7</ele>
        <time>2013-02-18T19:14:03Z</time>
      </trkpt>
      <trkpt lat="49.44638" lon="1.06363">
        <ele>7</ele>
        <time>2013-02-18T19:14:06Z</time>
      </trkpt>
      <trkpt lat="49.44625" lon="1.06353">
        <ele>6</ele>
        <time>2013-02-18T19:14:17Z</time>
      </trkpt>
      <trkpt lat="49.4461" lon="1.0636">
        <ele>6</ele>
        <time>2013-02-18T19:14:21Z</time>
      </trkpt>
      <trkpt lat="49.44618" lon="1.06385">
        <ele>7</ele>
        <time>2013-02-18T19:14:31Z</time>
      </trkpt>
      <trkpt lat="49.44633" lon="1.064">
        <ele>7</ele>
        <time>2013-02-18T19:14:35Z</time>
      </trkpt>
      <trkpt lat="49.44648" lon="1.0641">
        <ele>8</ele>
        <time>2013-02-18T19:14:38Z</time>
      </trkpt>
      <trkpt lat="49.44663" lon="1.06418">
        <ele>8</ele>
        <time>2013-02-18T19:14:42Z</time>
      </trkpt>
      <trkpt lat="49.44678" lon="1.0642">
        <ele>8</ele>
        <time>2013-02-18T19:14:47Z</time>
      </trkpt>
      <trkpt lat="49.44693" lon="1.06425">
        <ele>8</ele>
        <time>2013-02-18T19:14:53Z</time>
      </trkpt>
      <trkpt lat="49.447" lon="1.06443">
        <ele>8</ele>
        <time>2013-02-18T19:15:02Z</time>
      </trkpt>
      <trkpt lat="49.44693" lon="1.06463">
        <ele>8</ele>
        <time>2013-02-18T19:15:13Z</time>
      </trkpt>
      <trkpt lat="49.44678" lon="1.06465">
        <ele>8</ele>
        <time>2013-02-18T19:15:21Z</time>
      </trkpt>
      <trkpt lat="49.44663" lon="1.0647">
        <ele>8</ele>
        <time>2013-02-18T19:15:26Z</time>
      </trkpt>
      <trkpt lat="49.4464" lon="1.06465">
        <ele>8</ele>
        <time>2013-02-18T19:15:30Z</time>
      </trkpt>
      <trkpt lat="49.44623" lon="1.0646">
        <ele>7</ele>
        <time>2013-02-18T19:15:33Z</time>
      </trkpt>
      <trkpt lat="49.44655" lon="1.06313">
        <ele>7</ele>
        <time>2013-02-18T19:16:32Z</time>
      </trkpt>
      <trkpt lat="49.44648" lon="1.0633">
        <ele>7</ele>
        <time>2013-02-18T19:16:35Z</time>
      </trkpt>
      <trkpt lat="49.44663" lon="1.06338">
        <ele>7</ele>
        <time>2013-02-18T19:16:43Z</time>
      </trkpt>
      <trkpt lat="49.44678" lon="1.06343">
        <ele>7</ele>
        <time>2013-02-18T19:16:48Z</time>
      </trkpt>
      <trkpt lat="49.44695" lon="1.06345">
        <ele>7</ele>
        <time>2013-02-18T19:16:53Z</time>
      </trkpt>
      <trkpt lat="49.44708" lon="1.06358">
        <ele>7</ele>
        <time>2013-02-18T19:16:57Z</time>
      </trkpt>
      <trkpt lat="49.44713" lon="1.06388">
        <ele>7</ele>
        <time>2013-02-18T19:17:01Z</time>
      </trkpt>
      <trkpt lat="49.44715" lon="1.0641">
        <ele>8</ele>
        <time>2013-02-18T19:17:04Z</time>
      </trkpt>
      <trkpt lat="49.44718" lon="1.06438">
        <ele>8</ele>
        <time>2013-02-18T19:17:07Z</time>
      </trkpt>
      <trkpt lat="49.44713" lon="1.06463">
        <ele>8</ele>
        <time>2013-02-18T19:17:10Z</time>
      </trkpt>
      <trkpt lat="49.44708" lon="1.06483">
        <ele>8</ele>
        <time>2013-02-18T19:17:13Z</time>
      </trkpt>
      <trkpt lat="49.447" lon="1.065">
        <ele>8</ele>
        <time>2013-02-18T19:17:16Z</time>
      </trkpt>
      <trkpt lat="49.4469" lon="1.06518">
        <ele>8</ele>
        <time>2013-02-18T19:17:20Z</time>
      </trkpt>
      <trkpt lat="49.44675" lon="1.06528">
        <ele>8</ele>
        <time>2013-02-18T19:17:26Z</time>
      </trkpt>
      <trkpt lat="49.44673" lon="1.06505">
        <ele>8</ele>
        <time>2013-02-18T19:17:31Z</time>
      </trkpt>
      <trkpt lat="49.44663" lon="1.0649">
        <ele>8</ele>
        <time>2013-02-18T19:17:36Z</time>
      </trkpt>
      <trkpt lat="49.44648" lon="1.06485">
        <ele>8</ele>
        <time>2013-02-18T19:17:40Z</time>
      </trkpt>
      <trkpt lat="49.44625" lon="1.06478">
        <ele>7</ele>
        <time>2013-02-18T19:17:45Z</time>
      </trkpt>
      <trkpt lat="49.446" lon="1.06468">
        <ele>7</ele>
        <time>2013-02-18T19:17:51Z</time>
      </trkpt>
      <trkpt lat="49.44585" lon="1.06465">
        <ele>6</ele>
        <time>2013-02-18T19:17:55Z</time>
      </trkpt>
      <trkpt lat="49.4457" lon="1.06465">
        <ele>6</ele>
        <time>2013-02-18T19:18:00Z</time>
      </trkpt>
      <trkpt lat="49.44555" lon="1.06453">
        <ele>6</ele>
        <time>2013-02-18T19:18:05Z</time>
      </trkpt>
      <trkpt lat="49.44548" lon="1.06435">
        <ele>6</ele>
        <time>2013-02-18T19:18:15Z</time>
      </trkpt>
      <trkpt lat="49.44558" lon="1.0645">
        <ele>6</ele>
        <time>2013-02-18T19:18:22Z</time>
      </trkpt>
      <trkpt lat="49.44565" lon="1.0647">
        <ele>6</ele>
        <time>2013-02-18T19:18:39Z</time>
      </trkpt>
      <trkpt lat="49.44548" lon="1.0647">
        <ele>6</ele>
        <time>2013-02-18T19:18:43Z</time>
      </trkpt>
      <trkpt lat="49.44533" lon="1.0647">
        <ele>5</ele>
        <time>2013-02-18T19:18:47Z</time>
      </trkpt>
      <trkpt lat="49.44525" lon="1.06453">
        <ele>5</ele>
        <time>2013-02-18T19:18:53Z</time>
      </trkpt>
      <trkpt lat="49.44525" lon="1.0643">
        <ele>5</ele>
        <time>2013-02-18T19:18:59Z</time>
      </trkpt>
      <trkpt lat="49.44518" lon="1.06413">
        <ele>5</ele>
        <time>2013-02-18T19:19:08Z</time>
      </trkpt>
      <trkpt lat="49.44503" lon="1.06405">
        <ele>5</ele>
        <time>2013-02-18T19:19:13Z</time>
      </trkpt>
      <trkpt lat="49.4449" lon="1.06395">
        <ele>4</ele>
        <time>2013-02-18T19:19:17Z</time>
      </trkpt>
      <trkpt lat="49.44483" lon="1.06375">
        <ele>4</ele>
        <time>2013-02-18T19:19:20Z</time>
      </trkpt>
      <trkpt lat="49.44483" lon="1.06353">
        <ele>4</ele>
        <time>2013-02-18T19:19:23Z</time>
      </trkpt>
      <trkpt lat="49.4448" lon="1.06325">
        <ele>4</ele>
        <time>2013-02-18T19:19:27Z</time>
      </trkpt>
      <trkpt lat="49.4448" lon="1.06303">
        <ele>4</ele>
        <time>2013-02-18T19:19:30Z</time>
      </trkpt>
      <trkpt lat="49.44473" lon="1.06285">
        <ele>4</ele>
        <time>2013-02-18T19:19:37Z</time>
      </trkpt>
    </trkseg>
  </trk>
</gpx>